| time (UTC) | temp F | wind direction | speed knots | gust knots | rain 1hr in | rain 24hr in | rain mn in | humidity % | barometer mb |
| 20260508070705 | 60 | 310 | 3.5 | 7.8 | 0.00 | 0.87 | 0.00 | 78 | 1011.6 |
| 20260508070607 | 60 | 340 | 3.5 | 7.8 | 0.00 | 0.87 | 0.00 | 78 | 1011.6 |
| 20260508070508 | 60 | 56 | 2.6 | 7.8 | 0.00 | 0.87 | 0.00 | 78 | 1011.5 |
| 20260508070306 | 60 | 296 | 2.6 | 7.8 | 0.00 | 0.87 | 0.00 | 78 | 1011.6 |
| 20260508070207 | 60 | 245 | 2.6 | 7.8 | 0.00 | 0.87 | 0.00 | 78 | 1011.6 |
| 20260508070107 | 60 | 320 | 2.6 | 7.8 | 0.00 | 0.87 | 0.00 | 78 | 1011.6 |
| 20260508070012 | 60 | 335 | 2.6 | 7.8 | 0.00 | 0.87 | 0.00 | 78 | 1011.6 |
| 20260508065808 | 60 | 335 | 2.6 | 7.8 | 0.00 | 0.87 | 0.00 | 78 | 1011.5 |
| 20260508065707 | 60 | 325 | 2.6 | 5.2 | 0.00 | 0.87 | 0.00 | 79 | 1011.5 |
| 20260508065607 | 60 | 262 | 2.6 | 5.2 | 0.00 | 0.87 | 0.00 | 79 | 1011.5 |
| 20260508065509 | 60 | 283 | 2.6 | 7.0 | 0.00 | 0.87 | 0.00 | 79 | 1011.5 |
| 20260508065207 | 60 | 325 | 3.5 | 7.8 | 0.00 | 0.87 | 0.00 | 78 | 1011.5 |
| 20260508065108 | 60 | 267 | 3.5 | 7.8 | 0.00 | 0.87 | 0.00 | 78 | 1011.5 |
| 20260508065008 | 60 | 254 | 3.5 | 7.8 | 0.00 | 0.87 | 0.00 | 78 | 1011.5 |
| 20260508064906 | 60 | 311 | 3.5 | 7.8 | 0.00 | 0.87 | 0.00 | 78 | 1011.5 |
| 20260508064805 | 60 | 247 | 3.5 | 7.8 | 0.00 | 0.87 | 0.00 | 78 | 1011.5 |
| 20260508064707 | 60 | 179 | 3.5 | 7.8 | 0.00 | 0.87 | 0.00 | 78 | 1011.5 |
| 20260508064607 | 60 | 267 | 3.5 | 7.8 | 0.00 | 0.87 | 0.00 | 78 | 1011.5 |
| 20260508064407 | 60 | 299 | 2.6 | 7.0 | 0.00 | 0.87 | 0.00 | 77 | 1011.5 |
| 20260508064206 | 60 | 303 | 3.5 | 7.8 | 0.00 | 0.87 | 0.00 | 77 | 1011.5 |
| 20260508064107 | 60 | 214 | 3.5 | 7.8 | 0.00 | 0.87 | 0.00 | 77 | 1011.4 |
| 20260508064014 | 60 | 5 | 3.5 | 7.8 | 0.00 | 0.87 | 0.00 | 77 | 1011.4 |
| 20260508063807 | 60 | 325 | 3.5 | 7.8 | 0.00 | 0.87 | 0.00 | 77 | 1011.4 |
| 20260508063707 | 60 | 279 | 3.5 | 7.8 | 0.00 | 0.87 | 0.00 | 77 | 1011.4 |
| 20260508063508 | 60 | 335 | 4.3 | 8.7 | 0.00 | 0.87 | 0.00 | 76 | 1011.3 |
| 20260508063407 | 60 | 21 | 4.3 | 8.7 | 0.00 | 0.87 | 0.00 | 76 | 1011.3 |
| 20260508063305 | 60 | 271 | 4.3 | 8.7 | 0.00 | 0.87 | 0.00 | 76 | 1011.3 |
| 20260508063206 | 60 | 330 | 4.3 | 8.7 | 0.00 | 0.87 | 0.00 | 77 | 1011.3 |
| 20260508063106 | 60 | 330 | 4.3 | 8.7 | 0.00 | 0.87 | 0.00 | 77 | 1011.2 |
| 20260508063008 | 60 | 242 | 3.5 | 8.7 | 0.00 | 0.87 | 0.00 | 77 | 1011.1 |
| 20260508062906 | 60 | 257 | 3.5 | 8.7 | 0.00 | 0.87 | 0.00 | 77 | 1011.1 |
| 20260508062806 | 60 | 306 | 3.5 | 8.7 | 0.00 | 0.87 | 0.00 | 77 | 1011.1 |
| 20260508062706 | 60 | 320 | 3.5 | 8.7 | 0.00 | 0.87 | 0.00 | 77 | 1011.1 |
| 20260508062605 | 60 | 279 | 4.3 | 8.7 | 0.00 | 0.87 | 0.00 | 78 | 1011.1 |
| 20260508062408 | 60 | 312 | 4.3 | 8.7 | 0.00 | 0.87 | 0.00 | 78 | 1011.0 |
| 20260508062308 | 60 | 335 | 3.5 | 8.7 | 0.00 | 0.87 | 0.00 | 78 | 1011.0 |
| 20260508062207 | 60 | 325 | 3.5 | 7.8 | 0.00 | 0.87 | 0.00 | 78 | 1011.0 |
| 20260508062107 | 59 | 335 | 3.5 | 7.8 | 0.00 | 0.87 | 0.00 | 79 | 1011.0 |
| 20260508061907 | 59 | 304 | 3.5 | 7.8 | 0.00 | 0.87 | 0.00 | 79 | 1011.1 |
| 20260508061706 | 59 | 352 | 2.6 | 7.0 | 0.00 | 0.87 | 0.00 | 79 | 1011.2 |
| 20260508061609 | 59 | 330 | 2.6 | 7.0 | 0.00 | 0.87 | 0.00 | 79 | 1011.2 |
| 20260508061508 | 59 | 317 | 2.6 | 7.0 | 0.00 | 0.87 | 0.00 | 79 | 1011.2 |
| 20260508061409 | 59 | 335 | 2.6 | 5.2 | 0.00 | 0.87 | 0.00 | 79 | 1011.2 |
| 20260508061306 | 59 | 325 | 2.6 | 4.3 | 0.00 | 0.87 | 0.00 | 79 | 1011.3 |
| 20260508061207 | 59 | 296 | 2.6 | 4.3 | 0.00 | 0.87 | 0.00 | 79 | 1011.2 |
| 20260508061107 | 59 | 339 | 2.6 | 4.3 | 0.00 | 0.87 | 0.00 | 79 | 1011.2 |
| 20260508061007 | 59 | 315 | 1.7 | 4.3 | 0.00 | 0.87 | 0.00 | 79 | 1011.2 |
| 20260508060807 | 59 | 343 | 2.6 | 7.0 | 0.00 | 0.87 | 0.00 | 79 | 1011.2 |
| 20260508060706 | 59 | 283 | 2.6 | 7.0 | 0.00 | 0.87 | 0.00 | 80 | 1011.3 |
| 20260508060507 | 59 | 353 | 1.7 | 7.0 | 0.00 | 0.87 | 0.00 | 79 | 1011.3 |
| 20260508060405 | 59 | 236 | 1.7 | 7.0 | 0.00 | 0.87 | 0.00 | 80 | 1011.3 |
| 20260508060306 | 59 | 353 | 1.7 | 7.0 | 0.00 | 0.87 | 0.00 | 80 | 1011.3 |
| 20260508060205 | 59 | 249 | 1.7 | 7.0 | 0.00 | 0.87 | 0.00 | 80 | 1011.2 |
| 20260508060106 | 59 | 256 | 1.7 | 7.0 | 0.00 | 0.87 | 0.00 | 80 | 1011.1 |
| 20260508060007 | 59 | 228 | 0.9 | 7.0 | 0.00 | 0.87 | 0.00 | 80 | 1011.1 |
| 20260508055906 | 59 | 283 | 0.9 | 7.0 | 0.00 | 0.87 | 0.00 | 80 | 1011.1 |
| 20260508055804 | 59 | 223 | 0.9 | 2.6 | 0.00 | 0.87 | 0.00 | 80 | 1011.1 |
| 20260508055705 | 59 | 252 | 1.7 | 2.6 | 0.00 | 0.87 | 0.00 | 79 | 1011.1 |
| 20260508055606 | 59 | 285 | 1.7 | 3.5 | 0.00 | 0.87 | 0.00 | 79 | 1011.2 |
| 20260508055506 | 59 | 259 | 1.7 | 5.2 | 0.00 | 0.87 | 0.00 | 79 | 1011.2 |
| 20260508055009 | 59 | 299 | 3.5 | 5.2 | 0.00 | 0.87 | 0.00 | 79 | 1011.1 |
| 20260508054907 | 59 | 285 | 3.5 | 5.2 | 0.00 | 0.87 | 0.00 | 79 | 1011.2 |
| 20260508054806 | 59 | 2 | 3.5 | 5.2 | 0.00 | 0.87 | 0.00 | 79 | 1011.1 |
| 20260508054705 | 59 | 358 | 3.5 | 7.0 | 0.00 | 0.87 | 0.00 | 79 | 1011.0 |
| 20260508054507 | 59 | 274 | 3.5 | 7.0 | 0.00 | 0.87 | 0.00 | 79 | 1011.0 |
| 20260508054406 | 59 | 320 | 3.5 | 7.0 | 0.00 | 0.87 | 0.00 | 79 | 1011.0 |
| 20260508054305 | 59 | 341 | 2.6 | 7.0 | 0.00 | 0.87 | 0.00 | 79 | 1010.9 |
| 20260508054206 | 59 | 259 | 2.6 | 7.0 | 0.00 | 0.87 | 0.00 | 79 | 1010.9 |
| 20260508054107 | 59 | 318 | 2.6 | 7.0 | 0.00 | 0.87 | 0.00 | 79 | 1010.9 |
| 20260508054009 | 59 | 353 | 2.6 | 7.0 | 0.00 | 0.87 | 0.00 | 79 | 1010.8 |
| 20260508053906 | 59 | 316 | 2.6 | 7.0 | 0.00 | 0.87 | 0.00 | 79 | 1010.9 |
| 20260508053806 | 59 | 339 | 2.6 | 7.0 | 0.00 | 0.87 | 0.00 | 79 | 1010.8 |
| 20260508053605 | 59 | 231 | 2.6 | 5.2 | 0.00 | 0.87 | 0.00 | 79 | 1010.7 |
| 20260508053507 | 59 | 241 | 2.6 | 5.2 | 0.00 | 0.87 | 0.00 | 79 | 1010.8 |
| 20260508053405 | 59 | 227 | 2.6 | 5.2 | 0.00 | 0.87 | 0.00 | 79 | 1010.7 |
| 20260508053305 | 59 | 352 | 2.6 | 5.2 | 0.00 | 0.87 | 0.00 | 79 | 1010.7 |
| 20260508053205 | 59 | 6 | 2.6 | 5.2 | 0.00 | 0.87 | 0.00 | 79 | 1010.7 |
| 20260508053106 | 58 | 335 | 2.6 | 5.2 | 0.00 | 0.87 | 0.00 | 79 | 1010.7 |
| 20260508053007 | 58 | 352 | 2.6 | 5.2 | 0.00 | 0.87 | 0.00 | 79 | 1010.6 |
| 20260508052906 | 58 | 215 | 2.6 | 5.2 | 0.00 | 0.87 | 0.00 | 80 | 1010.7 |
| 20260508052804 | 58 | 335 | 2.6 | 5.2 | 0.00 | 0.87 | 0.00 | 80 | 1010.7 |
| 20260508052707 | 58 | 330 | 2.6 | 5.2 | 0.00 | 0.87 | 0.00 | 80 | 1010.6 |
| 20260508052607 | 58 | 282 | 1.7 | 6.1 | 0.00 | 0.87 | 0.00 | 79 | 1010.7 |
| 20260508052405 | 59 | 311 | 1.7 | 5.2 | 0.00 | 0.87 | 0.00 | 79 | 1010.6 |
| 20260508052307 | 59 | 339 | 1.7 | 5.2 | 0.00 | 0.87 | 0.00 | 79 | 1010.6 |
| 20260508052104 | 59 | 235 | 2.6 | 5.2 | 0.00 | 0.87 | 0.00 | 78 | 1010.6 |
| 20260508052007 | 59 | 251 | 2.6 | 7.8 | 0.00 | 0.87 | 0.00 | 78 | 1010.6 |
| 20260508051905 | 59 | 237 | 3.5 | 7.8 | 0.00 | 0.87 | 0.00 | 78 | 1010.5 |
| 20260508051807 | 59 | 224 | 3.5 | 7.8 | 0.00 | 0.87 | 0.00 | 77 | 1010.6 |
| 20260508051705 | 59 | 330 | 3.5 | 7.8 | 0.00 | 0.87 | 0.00 | 77 | 1010.5 |
| 20260508051605 | 59 | 314 | 3.5 | 7.8 | 0.00 | 0.87 | 0.00 | 77 | 1010.4 |
| 20260508051305 | 59 | 251 | 3.5 | 7.8 | 0.00 | 0.87 | 0.00 | 77 | 1010.3 |
| 20260508051205 | 59 | 310 | 3.5 | 7.8 | 0.00 | 0.87 | 0.00 | 77 | 1010.4 |
| 20260508051106 | 59 | 289 | 2.6 | 7.8 | 0.00 | 0.87 | 0.00 | 78 | 1010.4 |
| 20260508051007 | 59 | 325 | 2.6 | 7.0 | 0.00 | 0.87 | 0.00 | 78 | 1010.4 |
| 20260508050906 | 59 | 34 | 2.6 | 7.0 | 0.00 | 0.87 | 0.00 | 78 | 1010.4 |
| 20260508050806 | 59 | 274 | 2.6 | 7.8 | 0.00 | 0.87 | 0.00 | 77 | 1010.3 |
| 20260508050704 | 59 | 330 | 2.6 | 7.8 | 0.00 | 0.87 | 0.00 | 77 | 1010.4 |
| 20260508050604 | 59 | 335 | 2.6 | 7.8 | 0.00 | 0.87 | 0.00 | 77 | 1010.4 |
| 20260508050508 | 60 | 206 | 2.6 | 7.8 | 0.00 | 0.87 | 0.00 | 77 | 1010.4 |
| 20260508050406 | 60 | 347 | 2.6 | 7.8 | 0.00 | 0.87 | 0.00 | 77 | 1010.4 |
| 20260508050306 | 60 | 272 | 2.6 | 7.8 | 0.00 | 0.87 | 0.00 | 77 | 1010.3 |
| 20260508050105 | 60 | 309 | 2.6 | 7.8 | 0.00 | 0.87 | 0.00 | 77 | 1010.3 |
| 20260508050008 | 60 | 341 | 3.5 | 7.8 | 0.00 | 0.87 | 0.00 | 78 | 1010.2 |
| 20260508045905 | 60 | 311 | 3.5 | 8.7 | 0.00 | 0.87 | 0.00 | 78 | 1010.3 |
| 20260508045805 | 60 | 245 | 3.5 | 9.6 | 0.00 | 0.87 | 0.00 | 77 | 1010.3 |
| 20260508045405 | 60 | 300 | 3.5 | 9.6 | 0.00 | 0.87 | 0.00 | 76 | 1010.3 |
| 20260508045307 | 60 | 286 | 4.3 | 9.6 | 0.00 | 0.87 | 0.00 | 76 | 1010.3 |
| 20260508045206 | 60 | 261 | 4.3 | 9.6 | 0.00 | 0.87 | 0.00 | 76 | 1010.3 |
| 20260508045104 | 60 | 273 | 4.3 | 9.6 | 0.00 | 0.87 | 0.00 | 76 | 1010.3 |
| 20260508045007 | 60 | 291 | 4.3 | 9.6 | 0.00 | 0.87 | 0.00 | 77 | 1010.2 |
| 20260508044806 | 60 | 339 | 4.3 | 8.7 | 0.00 | 0.87 | 0.00 | 76 | 1010.2 |
| 20260508044704 | 60 | 330 | 3.5 | 8.7 | 0.00 | 0.87 | 0.00 | 76 | 1010.2 |
| 20260508044605 | 60 | 247 | 3.5 | 8.7 | 0.00 | 0.87 | 0.00 | 76 | 1010.3 |
| 20260508044506 | 60 | 286 | 3.5 | 8.7 | 0.00 | 0.87 | 0.00 | 77 | 1010.2 |
| 20260508044406 | 60 | 291 | 3.5 | 8.7 | 0.00 | 0.87 | 0.00 | 77 | 1010.2 |
| 20260508044305 | 59 | 319 | 2.6 | 8.7 | 0.00 | 0.87 | 0.00 | 77 | 1010.2 |
| 20260508044206 | 59 | 279 | 2.6 | 8.7 | 0.00 | 0.87 | 0.00 | 77 | 1010.3 |
| 20260508044105 | 59 | 325 | 1.7 | 7.8 | 0.00 | 0.87 | 0.00 | 77 | 1010.3 |
| 20260508044007 | 59 | 269 | 1.7 | 7.0 | 0.00 | 0.87 | 0.00 | 77 | 1010.2 |
| 20260508043904 | 59 | 264 | 1.7 | 5.2 | 0.00 | 0.87 | 0.00 | 77 | 1010.3 |
| 20260508043804 | 59 | 309 | 2.6 | 7.0 | 0.00 | 0.87 | 0.00 | 77 | 1010.2 |
| 20260508043705 | 59 | 312 | 2.6 | 7.0 | 0.00 | 0.87 | 0.00 | 77 | 1010.3 |
| 20260508043606 | 59 | 343 | 2.6 | 7.0 | 0.00 | 0.87 | 0.00 | 77 | 1010.2 |
| 20260508043506 | 59 | 330 | 1.7 | 7.0 | 0.00 | 0.87 | 0.00 | 77 | 1010.2 |
| 20260508043404 | 59 | 210 | 2.6 | 7.0 | 0.00 | 0.87 | 0.00 | 77 | 1010.2 |
| 20260508043304 | 59 | 352 | 2.6 | 7.0 | 0.00 | 0.87 | 0.00 | 77 | 1010.2 |
| 20260508043206 | 59 | 237 | 2.6 | 7.0 | 0.00 | 0.87 | 0.00 | 77 | 1010.2 |
| 20260508043106 | 59 | 325 | 2.6 | 7.0 | 0.00 | 0.87 | 0.00 | 77 | 1010.2 |
| 20260508043007 | 59 | 239 | 2.6 | 7.0 | 0.00 | 0.87 | 0.00 | 77 | 1010.2 |
| 20260508042904 | 59 | 220 | 3.5 | 7.0 | 0.00 | 0.87 | 0.00 | 77 | 1010.2 |
| 20260508042805 | 59 | 346 | 3.5 | 9.6 | 0.00 | 0.87 | 0.00 | 76 | 1010.2 |
| 20260508042705 | 60 | 212 | 3.5 | 9.6 | 0.00 | 0.87 | 0.00 | 76 | 1010.2 |
| 20260508042606 | 60 | 356 | 4.3 | 9.6 | 0.00 | 0.87 | 0.00 | 76 | 1010.2 |
| 20260508042507 | 60 | 6 | 5.2 | 9.6 | 0.00 | 0.87 | 0.00 | 76 | 1010.2 |
| 20260508042405 | 60 | 306 | 5.2 | 9.6 | 0.00 | 0.87 | 0.00 | 76 | 1010.2 |
| 20260508042307 | 60 | 310 | 6.1 | 9.6 | 0.00 | 0.87 | 0.00 | 76 | 1010.1 |
| 20260508042207 | 60 | 313 | 6.1 | 9.6 | 0.00 | 0.87 | 0.00 | 76 | 1010.2 |
| 20260508042106 | 60 | 325 | 6.1 | 9.6 | 0.00 | 0.87 | 0.00 | 75 | 1010.1 |
| 20260508042006 | 60 | 325 | 6.1 | 9.6 | 0.00 | 0.87 | 0.00 | 75 | 1010.1 |
| 20260508041806 | 60 | 268 | 6.1 | 9.6 | 0.00 | 0.87 | 0.00 | 76 | 1010.2 |
| 20260508041705 | 60 | 318 | 7.0 | 9.6 | 0.00 | 0.87 | 0.00 | 76 | 1010.1 |
| 20260508041606 | 60 | 297 | 7.0 | 10.4 | 0.00 | 0.87 | 0.00 | 76 | 1010.1 |
| 20260508041404 | 60 | 318 | 6.1 | 10.4 | 0.00 | 0.87 | 0.00 | 76 | 1010.2 |
| 20260508041304 | 60 | 286 | 6.1 | 10.4 | 0.00 | 0.87 | 0.00 | 76 | 1010.1 |
| 20260508041204 | 60 | 290 | 6.1 | 10.4 | 0.00 | 0.87 | 0.00 | 76 | 1010.2 |
| 20260508041104 | 60 | 309 | 6.1 | 10.4 | 0.00 | 0.87 | 0.00 | 76 | 1010.2 |
| 20260508041007 | 60 | 318 | 6.1 | 10.4 | 0.00 | 0.87 | 0.00 | 76 | 1010.2 |
| 20260508040906 | 60 | 340 | 6.1 | 10.4 | 0.00 | 0.87 | 0.00 | 76 | 1010.2 |
| 20260508040805 | 60 | 302 | 5.2 | 10.4 | 0.00 | 0.87 | 0.00 | 76 | 1010.2 |
| 20260508040605 | 60 | 330 | 4.3 | 8.7 | 0.00 | 0.87 | 0.00 | 76 | 1010.2 |
| 20260508040507 | 60 | 352 | 4.3 | 8.7 | 0.00 | 0.87 | 0.00 | 76 | 1010.2 |
| 20260508040404 | 60 | 274 | 4.3 | 8.7 | 0.00 | 0.87 | 0.00 | 76 | 1010.3 |
| 20260508040306 | 60 | 320 | 4.3 | 8.7 | 0.00 | 0.87 | 0.00 | 76 | 1010.2 |
| 20260508040205 | 60 | 221 | 5.2 | 8.7 | 0.00 | 0.87 | 0.00 | 76 | 1010.2 |
| 20260508040104 | 60 | 339 | 5.2 | 8.7 | 0.00 | 0.87 | 0.00 | 76 | 1010.2 |
| 20260508040007 | 60 | 347 | 5.2 | 8.7 | 0.00 | 0.87 | 0.00 | 76 | 1010.1 |
| 20260508035904 | 60 | 340 | 5.2 | 8.7 | 0.00 | 0.87 | 0.00 | 76 | 1010.2 |
| 20260508035805 | 60 | 340 | 5.2 | 9.6 | 0.00 | 0.87 | 0.00 | 76 | 1010.1 |
| 20260508035705 | 60 | 185 | 5.2 | 9.6 | 0.00 | 0.87 | 0.00 | 76 | 1010.1 |
| 20260508035605 | 60 | 264 | 5.2 | 9.6 | 0.00 | 0.87 | 0.00 | 76 | 1010.2 |
| 20260508035507 | 60 | 346 | 5.2 | 9.6 | 0.00 | 0.87 | 0.00 | 76 | 1010.1 |
| 20260508035405 | 60 | 349 | 5.2 | 9.6 | 0.00 | 0.87 | 0.00 | 76 | 1010.1 |
| 20260508035306 | 60 | 291 | 5.2 | 9.6 | 0.00 | 0.87 | 0.00 | 76 | 1010.2 |
| 20260508035205 | 60 | 341 | 4.3 | 9.6 | 0.00 | 0.87 | 0.00 | 76 | 1010.2 |
| 20260508035104 | 60 | 275 | 4.3 | 9.6 | 0.00 | 0.87 | 0.00 | 76 | 1010.3 |
| 20260508035008 | 60 | 293 | 4.3 | 9.6 | 0.00 | 0.87 | 0.00 | 76 | 1010.2 |
| 20260508034905 | 60 | 299 | 3.5 | 8.7 | 0.00 | 0.87 | 0.00 | 76 | 1010.2 |
| 20260508034805 | 59 | 308 | 3.5 | 7.8 | 0.00 | 0.87 | 0.00 | 76 | 1010.2 |
| 20260508034706 | 59 | 308 | 3.5 | 7.8 | 0.00 | 0.87 | 0.00 | 76 | 1010.2 |
| 20260508034604 | 59 | 307 | 3.5 | 7.8 | 0.00 | 0.87 | 0.00 | 76 | 1010.2 |
| 20260508034506 | 59 | 270 | 3.5 | 7.8 | 0.00 | 0.87 | 0.00 | 76 | 1010.2 |
| 20260508034406 | 59 | 282 | 3.5 | 7.8 | 0.00 | 0.87 | 0.00 | 76 | 1010.2 |
| 20260508034205 | 59 | 299 | 2.6 | 7.8 | 0.00 | 0.87 | 0.00 | 77 | 1010.2 |
| 20260508034106 | 59 | 286 | 2.6 | 7.0 | 0.00 | 0.87 | 0.00 | 77 | 1010.2 |
| 20260508034006 | 59 | 261 | 2.6 | 7.0 | 0.00 | 0.87 | 0.00 | 77 | 1010.2 |
| 20260508033805 | 59 | 233 | 2.6 | 7.0 | 0.00 | 0.87 | 0.00 | 77 | 1010.2 |
| 20260508033705 | 60 | 330 | 2.6 | 7.0 | 0.00 | 0.87 | 0.00 | 76 | 1010.1 |
| 20260508033604 | 60 | 314 | 2.6 | 7.0 | 0.00 | 0.87 | 0.00 | 76 | 1010.2 |
| 20260508033508 | 60 | 311 | 2.6 | 7.0 | 0.00 | 0.87 | 0.00 | 76 | 1010.2 |
| 20260508033404 | 60 | 325 | 2.6 | 7.0 | 0.00 | 0.87 | 0.00 | 76 | 1010.1 |
| 20260508033305 | 60 | 325 | 2.6 | 7.0 | 0.00 | 0.87 | 0.00 | 76 | 1010.2 |
| 20260508033105 | 60 | 343 | 3.5 | 7.8 | 0.00 | 0.87 | 0.00 | 76 | 1010.1 |
| 20260508033009 | 60 | 335 | 3.5 | 7.8 | 0.00 | 0.87 | 0.00 | 76 | 1010.1 |
| 20260508032705 | 60 | 330 | 3.5 | 7.8 | 0.00 | 0.87 | 0.00 | 76 | 1010.0 |
| 20260508032605 | 60 | 319 | 3.5 | 7.8 | 0.00 | 0.87 | 0.00 | 76 | 1009.9 |
| 20260508032507 | 60 | 335 | 2.6 | 7.8 | 0.00 | 0.87 | 0.00 | 76 | 1009.9 |
| 20260508032406 | 60 | 343 | 2.6 | 7.8 | 0.00 | 0.87 | 0.00 | 76 | 1009.9 |
| 20260508032206 | 60 | 343 | 2.6 | 7.0 | 0.00 | 0.87 | 0.00 | 76 | 1010.0 |
| 20260508032106 | 60 | 347 | 2.6 | 7.0 | 0.00 | 0.87 | 0.00 | 76 | 1010.0 |
| 20260508032008 | 60 | 320 | 3.5 | 7.0 | 0.00 | 0.87 | 0.00 | 76 | 1010.1 |
| 20260508031805 | 60 | 181 | 3.5 | 8.7 | 0.00 | 0.87 | 0.00 | 76 | 1010.1 |
| 20260508031707 | 60 | 325 | 3.5 | 8.7 | 0.00 | 0.87 | 0.00 | 76 | 1010.1 |
| 20260508031406 | 60 | 267 | 3.5 | 8.7 | 0.00 | 0.87 | 0.00 | 76 | 1010.3 |
| 20260508031305 | 60 | 310 | 3.5 | 8.7 | 0.00 | 0.87 | 0.00 | 75 | 1010.3 |
| 20260508031204 | 60 | 351 | 4.3 | 8.7 | 0.00 | 0.87 | 0.00 | 75 | 1010.3 |
| 20260508031107 | 60 | 341 | 4.3 | 8.7 | 0.00 | 0.87 | 0.00 | 75 | 1010.3 |
| 20260508030905 | 60 | 313 | 3.5 | 8.7 | 0.00 | 0.87 | 0.00 | 76 | 1010.3 |
| 20260508030805 | 60 | 335 | 3.5 | 7.8 | 0.00 | 0.87 | 0.00 | 75 | 1010.4 |
| 20260508030705 | 60 | 309 | 3.5 | 7.8 | 0.00 | 0.87 | 0.00 | 75 | 1010.3 |
| 20260508030605 | 60 | 305 | 3.5 | 7.8 | 0.00 | 0.87 | 0.00 | 75 | 1010.3 |
| 20260508030507 | 60 | 14 | 3.5 | 7.8 | 0.00 | 0.87 | 0.00 | 75 | 1010.4 |
| 20260508030405 | 60 | 277 | 3.5 | 7.8 | 0.00 | 0.87 | 0.00 | 75 | 1010.3 |
| 20260508030306 | 60 | 280 | 3.5 | 7.8 | 0.00 | 0.87 | 0.00 | 75 | 1010.3 |
| 20260508030105 | 60 | 267 | 2.6 | 7.8 | 0.00 | 0.87 | 0.00 | 76 | 1010.4 |
| 20260508030007 | 60 | 325 | 3.5 | 7.0 | 0.00 | 0.87 | 0.00 | 76 | 1010.3 |
| 20260508025906 | 60 | 234 | 3.5 | 7.0 | 0.00 | 0.87 | 0.00 | 76 | 1010.3 |
| 20260508025806 | 60 | 325 | 3.5 | 7.0 | 0.00 | 0.87 | 0.00 | 76 | 1010.3 |
| 20260508025706 | 60 | 235 | 3.5 | 7.0 | 0.00 | 0.87 | 0.00 | 76 | 1010.4 |
| 20260508025605 | 60 | 335 | 3.5 | 7.0 | 0.00 | 0.87 | 0.00 | 76 | 1010.5 |
| 20260508025407 | 60 | 335 | 3.5 | 7.8 | 0.00 | 0.87 | 0.00 | 76 | 1010.5 |
| 20260508025207 | 60 | 345 | 4.3 | 7.8 | 0.00 | 0.87 | 0.00 | 76 | 1010.4 |
| 20260508025105 | 60 | 339 | 4.3 | 7.8 | 0.00 | 0.87 | 0.00 | 76 | 1010.5 |
| 20260508025007 | 60 | 330 | 4.3 | 7.8 | 0.00 | 0.87 | 0.00 | 76 | 1010.5 |
| 20260508024907 | 60 | 239 | 5.2 | 7.8 | 0.00 | 0.87 | 0.00 | 76 | 1010.5 |
| 20260508024804 | 60 | 320 | 4.3 | 7.8 | 0.00 | 0.87 | 0.00 | 76 | 1010.6 |
| 20260508024705 | 60 | 314 | 4.3 | 7.8 | 0.00 | 0.87 | 0.00 | 76 | 1010.6 |
| 20260508024605 | 60 | 330 | 4.3 | 7.8 | 0.00 | 0.87 | 0.00 | 76 | 1010.6 |
| 20260508024507 | 60 | 256 | 4.3 | 7.8 | 0.00 | 0.87 | 0.00 | 76 | 1010.6 |
| 20260508024404 | 60 | 239 | 4.3 | 7.8 | 0.00 | 0.87 | 0.00 | 76 | 1010.5 |
| 20260508024205 | 60 | 297 | 4.3 | 7.8 | 0.00 | 0.87 | 0.00 | 76 | 1010.6 |
| 20260508024107 | 60 | 317 | 3.5 | 8.7 | 0.00 | 0.87 | 0.00 | 76 | 1010.7 |
| 20260508024006 | 60 | 314 | 3.5 | 8.7 | 0.00 | 0.87 | 0.00 | 77 | 1010.7 |
| 20260508023906 | 60 | 312 | 3.5 | 8.7 | 0.00 | 0.87 | 0.00 | 77 | 1010.8 |
| 20260508023805 | 60 | 262 | 3.5 | 8.7 | 0.00 | 0.87 | 0.00 | 77 | 1010.7 |
| 20260508023707 | 60 | 325 | 3.5 | 8.7 | 0.00 | 0.87 | 0.00 | 77 | 1010.7 |
| 20260508023607 | 60 | 299 | 3.5 | 8.7 | 0.00 | 0.87 | 0.00 | 77 | 1010.6 |
| 20260508023508 | 60 | 261 | 3.5 | 8.7 | 0.00 | 0.87 | 0.00 | 77 | 1010.7 |
| 20260508023407 | 60 | 325 | 3.5 | 8.7 | 0.00 | 0.87 | 0.00 | 77 | 1010.7 |
| 20260508023306 | 60 | 261 | 2.6 | 8.7 | 0.00 | 0.87 | 0.00 | 78 | 1010.6 |
| 20260508023206 | 60 | 301 | 2.6 | 7.0 | 0.00 | 0.87 | 0.00 | 78 | 1010.6 |
| 20260508023104 | 59 | 325 | 3.5 | 7.0 | 0.00 | 0.87 | 0.00 | 78 | 1010.6 |
| 20260508023007 | 59 | 270 | 3.5 | 7.0 | 0.00 | 0.87 | 0.00 | 78 | 1010.6 |
| 20260508022905 | 59 | 312 | 3.5 | 5.2 | 0.00 | 0.87 | 0.00 | 78 | 1010.7 |
| 20260508022805 | 59 | 274 | 3.5 | 5.2 | 0.00 | 0.87 | 0.00 | 79 | 1010.7 |
| 20260508022706 | 59 | 303 | 3.5 | 5.2 | 0.00 | 0.87 | 0.00 | 79 | 1010.7 |
| 20260508022605 | 59 | 330 | 3.5 | 5.2 | 0.00 | 0.87 | 0.00 | 79 | 1010.7 |
| 20260508022507 | 59 | 300 | 3.5 | 5.2 | 0.00 | 0.87 | 0.00 | 79 | 1010.7 |
| 20260508022405 | 59 | 291 | 3.5 | 6.1 | 0.00 | 0.87 | 0.00 | 79 | 1010.7 |
| 20260508022307 | 59 | 330 | 2.6 | 5.2 | 0.00 | 0.87 | 0.00 | 80 | 1010.6 |
| 20260508022205 | 59 | 312 | 2.6 | 5.2 | 0.00 | 0.87 | 0.00 | 80 | 1010.7 |
| 20260508022104 | 59 | 325 | 2.6 | 6.1 | 0.00 | 0.87 | 0.00 | 80 | 1010.7 |
| 20260508021905 | 59 | 316 | 1.7 | 4.3 | 0.00 | 0.87 | 0.00 | 80 | 1010.7 |
| 20260508021806 | 59 | 265 | 1.7 | 4.3 | 0.00 | 0.87 | 0.00 | 80 | 1010.7 |
| 20260508021605 | 59 | 301 | 1.7 | 4.3 | 0.00 | 0.87 | 0.00 | 80 | 1010.7 |
| 20260508021506 | 59 | 305 | 1.7 | 3.5 | 0.00 | 0.87 | 0.00 | 80 | 1010.7 |
| 20260508021404 | 59 | 275 | 1.7 | 3.5 | 0.00 | 0.87 | 0.00 | 80 | 1010.7 |
| 20260508021204 | 59 | 316 | 1.7 | 5.2 | 0.00 | 0.87 | 0.00 | 80 | 1010.7 |
| 20260508020905 | 59 | 247 | 1.7 | 5.2 | 0.00 | 0.87 | 0.00 | 79 | 1010.7 |
| 20260508020807 | 59 | 247 | 2.6 | 5.2 | 0.00 | 0.87 | 0.00 | 79 | 1010.6 |
| 20260508020606 | 59 | 262 | 2.6 | 5.2 | 0.00 | 0.87 | 0.00 | 79 | 1010.7 |
| 20260508020405 | 59 | 303 | 2.6 | 5.2 | 0.00 | 0.87 | 0.00 | 79 | 1010.7 |
| 20260508020305 | 59 | 246 | 2.6 | 5.2 | 0.00 | 0.87 | 0.00 | 79 | 1010.6 |
| 20260508020205 | 59 | 286 | 2.6 | 7.0 | 0.00 | 0.87 | 0.00 | 79 | 1010.6 |
| 20260508020106 | 59 | 250 | 2.6 | 7.0 | 0.00 | 0.87 | 0.00 | 78 | 1010.5 |
| 20260508015904 | 59 | 249 | 3.5 | 7.0 | 0.00 | 0.87 | 0.00 | 78 | 1010.6 |
| 20260508015805 | 59 | 319 | 3.5 | 7.0 | 0.00 | 0.87 | 0.00 | 78 | 1010.6 |
| 20260508015705 | 59 | 354 | 3.5 | 7.0 | 0.00 | 0.87 | 0.00 | 78 | 1010.6 |
| 20260508015405 | 59 | 235 | 3.5 | 7.8 | 0.00 | 0.87 | 0.00 | 78 | 1010.6 |
| 20260508015306 | 59 | 320 | 3.5 | 7.8 | 0.00 | 0.87 | 0.00 | 79 | 1010.5 |
| 20260508015205 | 59 | 262 | 3.5 | 7.8 | 0.00 | 0.87 | 0.00 | 79 | 1010.6 |
| 20260508015106 | 59 | 350 | 3.5 | 7.8 | 0.00 | 0.87 | 0.00 | 79 | 1010.6 |
| 20260508015006 | 59 | 259 | 4.3 | 8.7 | 0.00 | 0.87 | 0.00 | 79 | 1010.6 |
| 20260508014906 | 59 | 343 | 4.3 | 8.7 | 0.00 | 0.87 | 0.00 | 79 | 1010.6 |
| 20260508014805 | 59 | 278 | 4.3 | 8.7 | 0.00 | 0.87 | 0.00 | 79 | 1010.6 |
| 20260508014706 | 59 | 312 | 4.3 | 8.7 | 0.00 | 0.87 | 0.00 | 79 | 1010.6 |
| 20260508014606 | 59 | 260 | 4.3 | 8.7 | 0.00 | 0.87 | 0.00 | 79 | 1010.6 |
| 20260508014506 | 59 | 319 | 4.3 | 8.7 | 0.00 | 0.87 | 0.00 | 79 | 1010.6 |
| 20260508014405 | 59 | 288 | 4.3 | 8.7 | 0.00 | 0.87 | 0.00 | 79 | 1010.7 |
| 20260508014305 | 59 | 293 | 4.3 | 8.7 | 0.00 | 0.87 | 0.00 | 79 | 1010.7 |
| 20260508014206 | 59 | 316 | 3.5 | 8.7 | 0.00 | 0.87 | 0.00 | 79 | 1010.6 |
| 20260508013905 | 59 | 233 | 3.5 | 7.8 | 0.00 | 0.87 | 0.00 | 79 | 1010.7 |
| 20260508013806 | 59 | 260 | 3.5 | 8.7 | 0.00 | 0.87 | 0.00 | 79 | 1010.7 |
| 20260508013706 | 59 | 291 | 4.3 | 8.7 | 0.00 | 0.87 | 0.00 | 79 | 1010.8 |
| 20260508013605 | 59 | 343 | 4.3 | 8.7 | 0.00 | 0.87 | 0.00 | 79 | 1010.8 |
| 20260508013507 | 59 | 292 | 4.3 | 8.7 | 0.00 | 0.87 | 0.00 | 79 | 1010.9 |
| 20260508013405 | 59 | 306 | 4.3 | 8.7 | 0.00 | 0.87 | 0.00 | 79 | 1010.8 |
| 20260508013306 | 59 | 339 | 4.3 | 8.7 | 0.00 | 0.87 | 0.00 | 79 | 1010.8 |
| 20260508013206 | 59 | 281 | 4.3 | 8.7 | 0.00 | 0.87 | 0.00 | 79 | 1010.8 |
| 20260508013106 | 59 | 341 | 4.3 | 8.7 | 0.00 | 0.87 | 0.00 | 79 | 1010.9 |
| 20260508013007 | 59 | 297 | 5.2 | 8.7 | 0.00 | 0.87 | 0.00 | 79 | 1010.9 |
| 20260508012906 | 59 | 254 | 5.2 | 8.7 | 0.00 | 0.87 | 0.00 | 78 | 1010.9 |
| 20260508012805 | 59 | 325 | 4.3 | 9.6 | 0.00 | 0.87 | 0.00 | 78 | 1010.9 |
| 20260508012704 | 59 | 325 | 4.3 | 9.6 | 0.00 | 0.87 | 0.00 | 78 | 1010.9 |
| 20260508012605 | 60 | 335 | 4.3 | 9.6 | 0.00 | 0.87 | 0.00 | 78 | 1010.9 |
| 20260508012406 | 59 | 340 | 4.3 | 9.6 | 0.00 | 0.87 | 0.00 | 78 | 1010.9 |
| 20260508012308 | 60 | 312 | 4.3 | 9.6 | 0.00 | 0.87 | 0.00 | 78 | 1011.0 |
| 20260508012205 | 59 | 232 | 5.2 | 9.6 | 0.00 | 0.87 | 0.00 | 78 | 1011.0 |
| 20260508012105 | 60 | 302 | 4.3 | 9.6 | 0.00 | 0.87 | 0.00 | 78 | 1011.0 |
| 20260508012007 | 59 | 256 | 4.3 | 9.6 | 0.00 | 0.87 | 0.00 | 79 | 1011.0 |
| 20260508011905 | 60 | 325 | 4.3 | 9.6 | 0.00 | 0.87 | 0.00 | 79 | 1011.1 |
| 20260508011806 | 60 | 316 | 4.3 | 9.6 | 0.00 | 0.87 | 0.00 | 79 | 1011.0 |
| 20260508011705 | 59 | 321 | 4.3 | 9.6 | 0.00 | 0.87 | 0.00 | 79 | 1011.1 |
| 20260508011604 | 59 | 330 | 4.3 | 9.6 | 0.00 | 0.87 | 0.00 | 79 | 1011.1 |
| 20260508011404 | 59 | 302 | 4.3 | 9.6 | 0.00 | 0.87 | 0.00 | 79 | 1011.1 |
| 20260508011305 | 59 | 291 | 4.3 | 9.6 | 0.00 | 0.87 | 0.00 | 79 | 1011.1 |
| 20260508011205 | 59 | 259 | 3.5 | 9.6 | 0.00 | 0.87 | 0.00 | 79 | 1011.1 |
| 20260508011106 | 59 | 330 | 3.5 | 9.6 | 0.00 | 0.87 | 0.00 | 79 | 1011.1 |
| 20260508011008 | 59 | 291 | 3.5 | 9.6 | 0.00 | 0.87 | 0.00 | 80 | 1011.1 |
| 20260508010905 | 59 | 299 | 3.5 | 9.6 | 0.00 | 0.87 | 0.00 | 80 | 1011.2 |
| 20260508010805 | 59 | 307 | 3.5 | 9.6 | 0.00 | 0.87 | 0.00 | 80 | 1011.1 |
| 20260508010705 | 59 | 330 | 4.3 | 7.8 | 0.00 | 0.87 | 0.00 | 80 | 1011.1 |
| 20260508010604 | 59 | 299 | 4.3 | 8.7 | 0.00 | 0.87 | 0.00 | 80 | 1011.1 |
| 20260508010507 | 59 | 290 | 4.3 | 8.7 | 0.00 | 0.87 | 0.00 | 80 | 1011.2 |
| 20260508010304 | 59 | 284 | 4.3 | 8.7 | 0.00 | 0.87 | 0.00 | 80 | 1011.2 |
| 20260508010205 | 59 | 250 | 4.3 | 9.6 | 0.00 | 0.87 | 0.00 | 80 | 1011.2 |
| 20260508010106 | 59 | 301 | 4.3 | 9.6 | 0.00 | 0.87 | 0.00 | 80 | 1011.3 |
| 20260508010011 | 59 | 308 | 5.2 | 9.6 | 0.00 | 0.87 | 0.00 | 80 | 1011.3 |
| 20260508005905 | 59 | 270 | 5.2 | 10.4 | 0.00 | 0.87 | 0.00 | 81 | 1011.3 |
| 20260508005804 | 59 | 306 | 5.2 | 10.4 | 0.00 | 0.87 | 0.00 | 80 | 1011.4 |
| 20260508005704 | 59 | 325 | 5.2 | 10.4 | 0.00 | 0.87 | 0.00 | 81 | 1011.3 |
| 20260508005605 | 59 | 339 | 5.2 | 10.4 | 0.00 | 0.87 | 0.00 | 80 | 1011.3 |
| 20260508005507 | 59 | 318 | 5.2 | 10.4 | 0.00 | 0.87 | 0.00 | 80 | 1011.3 |
| 20260508005407 | 59 | 296 | 5.2 | 10.4 | 0.00 | 0.87 | 0.00 | 80 | 1011.2 |
| 20260508005306 | 59 | 330 | 4.3 | 10.4 | 0.00 | 0.87 | 0.00 | 80 | 1011.3 |
| 20260508005205 | 59 | 335 | 4.3 | 10.4 | 0.00 | 0.87 | 0.00 | 80 | 1011.3 |
| 20260508005104 | 59 | 343 | 4.3 | 10.4 | 0.00 | 0.87 | 0.00 | 80 | 1011.3 |
| 20260508005007 | 59 | 279 | 4.3 | 10.4 | 0.00 | 0.87 | 0.00 | 80 | 1011.3 |
| 20260508004904 | 59 | 330 | 4.3 | 9.6 | 0.00 | 0.87 | 0.00 | 80 | 1011.2 |
| 20260508004805 | 59 | 314 | 4.3 | 10.4 | 0.00 | 0.87 | 0.00 | 80 | 1011.3 |
| 20260508004605 | 59 | 311 | 4.3 | 10.4 | 0.00 | 0.87 | 0.00 | 80 | 1011.2 |
| 20260508004506 | 59 | 274 | 4.3 | 10.4 | 0.00 | 0.87 | 0.00 | 80 | 1011.2 |
| 20260508004405 | 59 | 321 | 4.3 | 10.4 | 0.00 | 0.87 | 0.00 | 80 | 1011.1 |
| 20260508004204 | 59 | 305 | 4.3 | 10.4 | 0.00 | 0.87 | 0.00 | 80 | 1011.2 |
| 20260508004105 | 59 | 319 | 4.3 | 10.4 | 0.00 | 0.87 | 0.00 | 80 | 1011.2 |
| 20260508004009 | 59 | 306 | 4.3 | 10.4 | 0.00 | 0.87 | 0.00 | 80 | 1011.1 |
| 20260508003709 | 59 | 207 | 4.3 | 9.6 | 0.00 | 0.87 | 0.00 | 80 | 1011.1 |
| 20260508003605 | 59 | 282 | 4.3 | 9.6 | 0.00 | 0.87 | 0.00 | 80 | 1011.2 |
| 20260508003306 | 59 | 253 | 4.3 | 9.6 | 0.00 | 0.87 | 0.00 | 80 | 1011.2 |
| 20260508003105 | 59 | 342 | 4.3 | 9.6 | 0.00 | 0.87 | 0.00 | 80 | 1011.2 |
| 20260508002805 | 59 | 325 | 3.5 | 8.7 | 0.00 | 0.87 | 0.00 | 81 | 1011.3 |
| 20260508002404 | 59 | 340 | 3.5 | 8.7 | 0.00 | 0.87 | 0.00 | 82 | 1011.3 |
| 20260508002206 | 59 | 330 | 2.6 | 8.7 | 0.00 | 0.87 | 0.00 | 82 | 1011.2 |
| 20260508002101 | 59 | 228 | 2.6 | 7.0 | 0.00 | 0.87 | 0.00 | 82 | 1011.3 |
| 20260508001900 | 59 | 339 | 2.6 | 7.0 | 0.00 | 0.87 | 0.00 | 82 | 1011.4 |
| 20260508001800 | 59 | 302 | 2.6 | 7.0 | 0.00 | 0.87 | 0.00 | 82 | 1011.4 |
| 20260508001704 | 59 | 294 | 2.6 | 7.0 | 0.00 | 0.87 | 0.00 | 82 | 1011.4 |
| 20260508001606 | 59 | 355 | 1.7 | 7.0 | 0.00 | 0.87 | 0.00 | 82 | 1011.3 |
| 20260508001508 | 59 | 279 | 1.7 | 5.2 | 0.00 | 0.87 | 0.00 | 82 | 1011.5 |
| 20260508001405 | 59 | 318 | 1.7 | 5.2 | 0.00 | 0.87 | 0.00 | 82 | 1011.5 |
| 20260508001305 | 59 | 244 | 1.7 | 5.2 | 0.00 | 0.87 | 0.00 | 82 | 1011.5 |
| 20260508001105 | 59 | 314 | 1.7 | 5.2 | 0.00 | 0.87 | 0.00 | 82 | 1011.5 |
| 20260508000904 | 59 | 243 | 1.7 | 5.2 | 0.00 | 0.87 | 0.00 | 82 | 1011.5 |
| 20260508000805 | 59 | 335 | 1.7 | 5.2 | 0.00 | 0.87 | 0.00 | 82 | 1011.5 |
| 20260508000704 | 59 | 260 | 1.7 | 4.3 | 0.00 | 0.87 | 0.00 | 82 | 1011.5 |
| 20260508000606 | 59 | 234 | 1.7 | 4.3 | 0.00 | 0.87 | 0.00 | 82 | 1011.5 |
| 20260508000507 | 59 | 232 | 1.7 | 4.3 | 0.00 | 0.87 | 0.00 | 82 | 1011.6 |
| 20260508000305 | 59 | 335 | 1.7 | 4.3 | 0.00 | 0.87 | 0.00 | 82 | 1011.6 |
| 20260508000205 | 59 | 330 | 1.7 | 4.3 | 0.00 | 0.87 | 0.00 | 82 | 1011.6 |
| 20260508000013 | 59 | 240 | 1.7 | 4.3 | 0.00 | 0.87 | 0.00 | 82 | 1011.6 |
| 20260507235907 | 59 | 282 | 1.7 | 4.3 | 0.00 | 0.87 | 0.00 | 82 | 1011.6 |
| 20260507235705 | 59 | 330 | 1.7 | 4.3 | 0.00 | 0.87 | 0.00 | 82 | 1011.6 |
| 20260507235604 | 59 | 330 | 1.7 | 4.3 | 0.00 | 0.87 | 0.00 | 82 | 1011.6 |
| 20260507235510 | 59 | 330 | 2.6 | 4.3 | 0.00 | 0.87 | 0.00 | 82 | 1011.7 |
| 20260507235405 | 59 | 349 | 2.6 | 4.3 | 0.00 | 0.87 | 0.00 | 82 | 1011.6 |
| 20260507235306 | 59 | 314 | 2.6 | 4.3 | 0.00 | 0.87 | 0.00 | 81 | 1011.6 |
| 20260507235206 | 59 | 282 | 2.6 | 6.1 | 0.00 | 0.87 | 0.00 | 81 | 1011.6 |
| 20260507235105 | 59 | 236 | 2.6 | 6.1 | 0.00 | 0.87 | 0.00 | 81 | 1011.7 |
| 20260507235006 | 59 | 283 | 2.6 | 6.1 | 0.00 | 0.87 | 0.00 | 81 | 1011.7 |
| 20260507234905 | 59 | 308 | 2.6 | 6.1 | 0.00 | 0.87 | 0.00 | 81 | 1011.7 |
| 20260507234804 | 59 | 285 | 2.6 | 6.1 | 0.00 | 0.87 | 0.00 | 81 | 1011.7 |
| 20260507234605 | 59 | 249 | 2.6 | 6.1 | 0.00 | 0.87 | 0.00 | 81 | 1011.7 |
| 20260507234508 | 59 | 240 | 2.6 | 6.1 | 0.00 | 0.87 | 0.00 | 81 | 1011.7 |
| 20260507234404 | 59 | 240 | 2.6 | 7.0 | 0.00 | 0.87 | 0.00 | 80 | 1011.7 |
| 20260507234205 | 59 | 262 | 3.5 | 7.0 | 0.00 | 0.87 | 0.00 | 80 | 1011.8 |
| 20260507234105 | 59 | 240 | 3.5 | 7.0 | 0.00 | 0.87 | 0.00 | 80 | 1011.7 |
| 20260507234007 | 59 | 325 | 3.5 | 8.7 | 0.00 | 0.87 | 0.00 | 80 | 1011.7 |
| 20260507233905 | 59 | 316 | 4.3 | 8.7 | 0.00 | 0.87 | 0.00 | 80 | 1011.7 |
| 20260507233804 | 60 | 295 | 4.3 | 9.6 | 0.00 | 0.87 | 0.00 | 80 | 1011.7 |
| 20260507233706 | 59 | 285 | 4.3 | 9.6 | 0.00 | 0.87 | 0.00 | 80 | 1011.7 |
| 20260507233606 | 59 | 342 | 4.3 | 9.6 | 0.00 | 0.87 | 0.00 | 80 | 1011.7 |
| 20260507233506 | 59 | 319 | 4.3 | 9.6 | 0.00 | 0.87 | 0.00 | 80 | 1011.8 |
| 20260507233405 | 59 | 302 | 4.3 | 9.6 | 0.00 | 0.87 | 0.00 | 80 | 1011.7 |
| 20260507233304 | 59 | 265 | 4.3 | 9.6 | 0.00 | 0.87 | 0.00 | 80 | 1011.7 |
| 20260507233205 | 59 | 298 | 4.3 | 9.6 | 0.00 | 0.87 | 0.00 | 80 | 1011.7 |
| 20260507233007 | 59 | 330 | 4.3 | 9.6 | 0.00 | 0.87 | 0.00 | 81 | 1011.6 |
| 20260507232905 | 59 | 299 | 4.3 | 7.8 | 0.00 | 0.87 | 0.00 | 81 | 1011.6 |
| 20260507232806 | 59 | 311 | 4.3 | 7.8 | 0.00 | 0.87 | 0.00 | 81 | 1011.6 |
| 20260507232705 | 59 | 264 | 4.3 | 7.8 | 0.00 | 0.87 | 0.00 | 81 | 1011.7 |
| 20260507232612 | 59 | 345 | 4.3 | 7.8 | 0.00 | 0.87 | 0.00 | 81 | 1011.7 |
| 20260507232405 | 59 | 301 | 3.5 | 7.8 | 0.00 | 0.87 | 0.00 | 81 | 1011.7 |
| 20260507232105 | 59 | 339 | 3.5 | 7.8 | 0.00 | 0.87 | 0.00 | 81 | 1011.7 |
| 20260507232012 | 59 | 335 | 3.5 | 7.0 | 0.00 | 0.87 | 0.00 | 81 | 1011.8 |
| 20260507231907 | 59 | 321 | 2.6 | 7.0 | 0.00 | 0.87 | 0.00 | 81 | 1011.8 |
| 20260507231806 | 59 | 293 | 2.6 | 7.0 | 0.00 | 0.87 | 0.00 | 81 | 1011.8 |
| 20260507231705 | 59 | 262 | 2.6 | 7.0 | 0.00 | 0.87 | 0.00 | 82 | 1011.8 |
| 20260507231606 | 59 | 325 | 2.6 | 5.2 | 0.00 | 0.87 | 0.00 | 82 | 1011.9 |
| 20260507231404 | 59 | 330 | 2.6 | 5.2 | 0.00 | 0.87 | 0.00 | 82 | 1011.9 |
| 20260507231304 | 59 | 312 | 2.6 | 5.2 | 0.00 | 0.87 | 0.00 | 82 | 1011.9 |
| 20260507231206 | 59 | 279 | 2.6 | 5.2 | 0.00 | 0.87 | 0.00 | 82 | 1011.9 |
| 20260507231106 | 59 | 245 | 2.6 | 5.2 | 0.00 | 0.87 | 0.00 | 82 | 1011.9 |
| 20260507231007 | 59 | 291 | 2.6 | 5.2 | 0.00 | 0.87 | 0.00 | 82 | 1011.9 |
| 20260507230906 | 59 | 299 | 2.6 | 7.8 | 0.00 | 0.87 | 0.00 | 82 | 1011.9 |
| 20260507230805 | 59 | 259 | 3.5 | 7.8 | 0.00 | 0.87 | 0.00 | 82 | 1011.9 |
| 20260507230704 | 59 | 342 | 3.5 | 7.8 | 0.00 | 0.87 | 0.00 | 82 | 1011.9 |
| 20260507230607 | 59 | 258 | 3.5 | 7.8 | 0.00 | 0.87 | 0.00 | 82 | 1012.0 |
| 20260507230507 | 59 | 308 | 3.5 | 7.8 | 0.00 | 0.87 | 0.00 | 82 | 1011.9 |
| 20260507230305 | 59 | 325 | 2.6 | 7.8 | 0.00 | 0.87 | 0.00 | 82 | 1012.0 |
| 20260507230205 | 59 | 320 | 2.6 | 7.8 | 0.00 | 0.87 | 0.00 | 82 | 1012.0 |
| 20260507230104 | 59 | 347 | 2.6 | 7.8 | 0.00 | 0.87 | 0.00 | 82 | 1012.0 |
| 20260507225904 | 59 | 325 | 2.6 | 5.2 | 0.00 | 0.87 | 0.00 | 82 | 1012.0 |
| 20260507225805 | 59 | 275 | 2.6 | 5.2 | 0.00 | 0.87 | 0.00 | 82 | 1012.0 |
| 20260507225604 | 59 | 280 | 2.6 | 5.2 | 0.00 | 0.87 | 0.00 | 82 | 1012.0 |
| 20260507225405 | 59 | 330 | 2.6 | 5.2 | 0.00 | 0.87 | 0.00 | 82 | 1012.0 |
| 20260507225306 | 59 | 335 | 2.6 | 5.2 | 0.00 | 0.87 | 0.00 | 82 | 1012.0 |
| 20260507225206 | 59 | 283 | 2.6 | 5.2 | 0.00 | 0.87 | 0.00 | 82 | 1012.0 |
| 20260507225107 | 59 | 320 | 2.6 | 5.2 | 0.00 | 0.87 | 0.00 | 82 | 1012.0 |
| 20260507225007 | 59 | 279 | 2.6 | 5.2 | 0.00 | 0.87 | 0.00 | 82 | 1012.0 |
| 20260507224906 | 59 | 254 | 2.6 | 5.2 | 0.00 | 0.87 | 0.00 | 82 | 1012.0 |
| 20260507224806 | 59 | 262 | 2.6 | 5.2 | 0.00 | 0.87 | 0.00 | 82 | 1012.0 |
| 20260507224705 | 59 | 304 | 2.6 | 5.2 | 0.00 | 0.87 | 0.00 | 82 | 1012.0 |
| 20260507224608 | 59 | 314 | 1.7 | 5.2 | 0.00 | 0.87 | 0.00 | 82 | 1012.0 |
| 20260507224406 | 59 | 226 | 1.7 | 4.3 | 0.00 | 0.87 | 0.00 | 82 | 1012.0 |
| 20260507224305 | 59 | 256 | 1.7 | 4.3 | 0.00 | 0.87 | 0.00 | 82 | 1012.0 |
| 20260507224205 | 59 | 268 | 1.7 | 4.3 | 0.00 | 0.87 | 0.00 | 82 | 1012.0 |
| 20260507224104 | 59 | 312 | 1.7 | 4.3 | 0.00 | 0.87 | 0.00 | 82 | 1012.0 |
| 20260507224008 | 59 | 264 | 1.7 | 4.3 | 0.00 | 0.87 | 0.00 | 82 | 1012.0 |
| 20260507223906 | 59 | 306 | 1.7 | 4.3 | 0.00 | 0.87 | 0.00 | 82 | 1012.0 |
| 20260507223804 | 59 | 314 | 1.7 | 4.3 | 0.00 | 0.87 | 0.00 | 82 | 1011.9 |
| 20260507223704 | 59 | 359 | 1.7 | 4.3 | 0.00 | 0.87 | 0.00 | 82 | 1011.9 |
| 20260507223605 | 59 | 299 | 1.7 | 4.3 | 0.00 | 0.87 | 0.00 | 82 | 1012.0 |
| 20260507223506 | 59 | 272 | 1.7 | 5.2 | 0.00 | 0.87 | 0.00 | 82 | 1011.8 |
| 20260507223406 | 59 | 325 | 1.7 | 5.2 | 0.00 | 0.87 | 0.00 | 82 | 1012.0 |
| 20260507223304 | 59 | 335 | 1.7 | 5.2 | 0.00 | 0.87 | 0.00 | 82 | 1011.9 |
| 20260507223204 | 59 | 335 | 2.6 | 5.2 | 0.00 | 0.87 | 0.00 | 82 | 1011.8 |
| 20260507223008 | 59 | 335 | 2.6 | 5.2 | 0.00 | 0.87 | 0.00 | 83 | 1011.9 |
| 20260507222904 | 59 | 325 | 2.6 | 5.2 | 0.00 | 0.87 | 0.00 | 83 | 1011.9 |
| 20260507222708 | 59 | 325 | 2.6 | 7.0 | 0.00 | 0.87 | 0.00 | 83 | 1011.9 |
| 20260507222606 | 59 | 6 | 2.6 | 7.0 | 0.00 | 0.87 | 0.00 | 83 | 1011.9 |
| 20260507222507 | 59 | 316 | 2.6 | 7.0 | 0.00 | 0.87 | 0.00 | 83 | 1011.9 |
| 20260507222406 | 59 | 339 | 2.6 | 7.0 | 0.00 | 0.87 | 0.00 | 82 | 1011.8 |
| 20260507222306 | 59 | 239 | 2.6 | 7.0 | 0.00 | 0.87 | 0.00 | 82 | 1011.8 |
| 20260507222105 | 59 | 294 | 2.6 | 7.0 | 0.00 | 0.87 | 0.00 | 82 | 1011.8 |
| 20260507222007 | 59 | 343 | 2.6 | 7.0 | 0.00 | 0.87 | 0.00 | 82 | 1011.8 |
| 20260507221906 | 59 | 348 | 2.6 | 7.0 | 0.00 | 0.87 | 0.00 | 82 | 1011.9 |
| 20260507221805 | 59 | 335 | 2.6 | 7.0 | 0.00 | 0.87 | 0.00 | 82 | 1011.8 |
| 20260507221705 | 59 | 216 | 2.6 | 7.0 | 0.00 | 0.87 | 0.00 | 82 | 1011.8 |
| 20260507221604 | 59 | 341 | 3.5 | 7.8 | 0.00 | 0.87 | 0.00 | 82 | 1011.8 |
| 20260507221508 | 59 | 335 | 3.5 | 7.8 | 0.00 | 0.87 | 0.00 | 82 | 1011.8 |
| 20260507221304 | 59 | 229 | 4.3 | 8.7 | 0.00 | 0.87 | 0.00 | 82 | 1011.8 |
| 20260507221206 | 59 | 306 | 4.3 | 8.7 | 0.00 | 0.87 | 0.00 | 82 | 1011.8 |
| 20260507221106 | 59 | 298 | 4.3 | 8.7 | 0.00 | 0.87 | 0.00 | 82 | 1011.9 |
| 20260507221006 | 59 | 314 | 4.3 | 8.7 | 0.00 | 0.87 | 0.00 | 82 | 1011.8 |
| 20260507220906 | 59 | 339 | 4.3 | 8.7 | 0.00 | 0.87 | 0.00 | 82 | 1011.8 |
| 20260507220806 | 59 | 258 | 4.3 | 8.7 | 0.00 | 0.87 | 0.00 | 82 | 1011.9 |
| 20260507220605 | 59 | 293 | 4.3 | 8.7 | 0.00 | 0.87 | 0.00 | 82 | 1011.9 |
| 20260507220507 | 59 | 325 | 4.3 | 8.7 | 0.00 | 0.87 | 0.00 | 82 | 1011.9 |
| 20260507220406 | 59 | 295 | 4.3 | 8.7 | 0.00 | 0.87 | 0.00 | 82 | 1011.8 |
| 20260507220208 | 59 | 279 | 4.3 | 8.7 | 0.00 | 0.87 | 0.00 | 82 | 1011.9 |
| 20260507215708 | 59 | 330 | 4.3 | 8.7 | 0.00 | 0.87 | 0.87 | 83 | 1011.8 |
| 20260507215606 | 59 | 310 | 4.3 | 8.7 | 0.00 | 0.87 | 0.87 | 83 | 1011.8 |
| 20260507215509 | 59 | 239 | 4.3 | 8.7 | 0.00 | 0.87 | 0.87 | 83 | 1011.8 |
| 20260507215408 | 59 | 320 | 4.3 | 8.7 | 0.00 | 0.87 | 0.87 | 83 | 1011.8 |
| 20260507215308 | 59 | 312 | 4.3 | 8.7 | 0.00 | 0.87 | 0.87 | 83 | 1011.8 |
| 20260507215207 | 59 | 261 | 4.3 | 8.7 | 0.00 | 0.87 | 0.87 | 83 | 1011.8 |
| 20260507215107 | 59 | 140 | 4.3 | 8.7 | 0.00 | 0.87 | 0.87 | 83 | 1011.8 |
| 20260507215010 | 59 | 293 | 4.3 | 8.7 | 0.00 | 0.87 | 0.87 | 83 | 1011.7 |
| 20260507214908 | 59 | 301 | 4.3 | 8.7 | 0.00 | 0.87 | 0.87 | 83 | 1011.8 |
| 20260507214807 | 59 | 330 | 5.2 | 9.6 | 0.00 | 0.87 | 0.87 | 83 | 1011.8 |
| 20260507214708 | 59 | 276 | 5.2 | 9.6 | 0.00 | 0.87 | 0.87 | 83 | 1011.8 |
| 20260507214608 | 59 | 304 | 5.2 | 9.6 | 0.00 | 0.87 | 0.87 | 84 | 1011.8 |
| 20260507214509 | 59 | 321 | 5.2 | 9.6 | 0.00 | 0.87 | 0.87 | 84 | 1011.8 |
| 20260507214407 | 58 | 325 | 5.2 | 9.6 | 0.00 | 0.87 | 0.87 | 84 | 1011.8 |
| 20260507214307 | 58 | 351 | 5.2 | 9.6 | 0.00 | 0.87 | 0.87 | 84 | 1011.8 |
| 20260507214207 | 58 | 335 | 5.2 | 9.6 | 0.00 | 0.87 | 0.87 | 84 | 1011.8 |
| 20260507214108 | 58 | 316 | 5.2 | 9.6 | 0.00 | 0.87 | 0.87 | 84 | 1011.8 |
| 20260507214010 | 58 | 335 | 5.2 | 9.6 | 0.00 | 0.87 | 0.87 | 84 | 1011.8 |
| 20260507213907 | 58 | 330 | 5.2 | 9.6 | 0.00 | 0.87 | 0.87 | 84 | 1011.8 |
| 20260507213808 | 58 | 341 | 5.2 | 9.6 | 0.00 | 0.87 | 0.87 | 84 | 1011.8 |
| 20260507213707 | 58 | 354 | 4.3 | 9.6 | 0.00 | 0.87 | 0.87 | 84 | 1011.8 |
| 20260507213607 | 58 | 335 | 4.3 | 8.7 | 0.00 | 0.87 | 0.87 | 84 | 1011.7 |
| 20260507213407 | 58 | 311 | 4.3 | 8.7 | 0.00 | 0.87 | 0.87 | 84 | 1011.8 |
| 20260507213206 | 58 | 343 | 3.5 | 8.7 | 0.00 | 0.87 | 0.87 | 85 | 1011.8 |
| 20260507213009 | 58 | 320 | 3.5 | 8.7 | 0.00 | 0.87 | 0.87 | 85 | 1011.8 |
| 20260507212708 | 58 | 306 | 2.6 | 7.0 | 0.00 | 0.87 | 0.87 | 85 | 1011.8 |
| 20260507212608 | 58 | 6 | 2.6 | 7.0 | 0.00 | 0.87 | 0.87 | 86 | 1011.7 |
| 20260507212407 | 58 | 279 | 2.6 | 7.0 | 0.00 | 0.87 | 0.87 | 86 | 1011.6 |
| 20260507212308 | 58 | 280 | 2.6 | 5.2 | 0.00 | 0.87 | 0.87 | 86 | 1011.7 |
| 20260507212206 | 58 | 335 | 2.6 | 5.2 | 0.00 | 0.87 | 0.87 | 86 | 1011.6 |
| 20260507212106 | 58 | 207 | 2.6 | 5.2 | 0.00 | 0.87 | 0.87 | 86 | 1011.7 |
| 20260507212009 | 58 | 305 | 2.6 | 5.2 | 0.00 | 0.87 | 0.87 | 86 | 1011.7 |
| 20260507211909 | 58 | 311 | 2.6 | 5.2 | 0.00 | 0.87 | 0.87 | 86 | 1011.6 |
| 20260507211808 | 58 | 310 | 2.6 | 5.2 | 0.00 | 0.87 | 0.87 | 87 | 1011.6 |
| 20260507211708 | 58 | 255 | 2.6 | 5.2 | 0.00 | 0.87 | 0.87 | 87 | 1011.7 |
| 20260507211609 | 58 | 306 | 2.6 | 5.2 | 0.00 | 0.87 | 0.87 | 87 | 1011.6 |
| 20260507211510 | 58 | 339 | 2.6 | 5.2 | 0.00 | 0.87 | 0.87 | 87 | 1011.6 |
| 20260507211406 | 58 | 267 | 2.6 | 5.2 | 0.00 | 0.87 | 0.87 | 87 | 1011.6 |
| 20260507211206 | 58 | 253 | 2.6 | 5.2 | 0.00 | 0.87 | 0.87 | 87 | 1011.6 |
| 20260507211108 | 58 | 266 | 1.7 | 5.2 | 0.00 | 0.87 | 0.87 | 87 | 1011.6 |
| 20260507211010 | 58 | 288 | 1.7 | 4.3 | 0.00 | 0.87 | 0.87 | 87 | 1011.5 |
| 20260507210907 | 58 | 289 | 1.7 | 4.3 | 0.00 | 0.87 | 0.87 | 87 | 1011.5 |
| 20260507210809 | 58 | 358 | 1.7 | 4.3 | 0.00 | 0.87 | 0.87 | 87 | 1011.5 |
| 20260507210708 | 58 | 297 | 1.7 | 4.3 | 0.00 | 0.87 | 0.87 | 87 | 1011.4 |
| 20260507210606 | 58 | 330 | 1.7 | 4.3 | 0.00 | 0.87 | 0.87 | 87 | 1011.4 |
| 20260507210509 | 58 | 325 | 1.7 | 3.5 | 0.00 | 0.87 | 0.87 | 87 | 1011.4 |
| 20260507210408 | 58 | 266 | 1.7 | 3.5 | 0.00 | 0.87 | 0.87 | 88 | 1011.4 |
| 20260507210207 | 58 | 237 | 1.7 | 3.5 | 0.00 | 0.87 | 0.87 | 88 | 1011.4 |
| 20260507210107 | 58 | 259 | 1.7 | 3.5 | 0.00 | 0.87 | 0.87 | 88 | 1011.3 |
| 20260507205907 | 58 | 344 | 1.7 | 3.5 | 0.00 | 0.87 | 0.87 | 88 | 1011.4 |
| 20260507205807 | 58 | 245 | 2.6 | 3.5 | 0.00 | 0.87 | 0.87 | 88 | 1011.4 |
| 20260507205706 | 58 | 245 | 2.6 | 3.5 | 0.00 | 0.87 | 0.87 | 88 | 1011.3 |
| 20260507205606 | 58 | 245 | 2.6 | 4.3 | 0.00 | 0.87 | 0.87 | 88 | 1011.3 |
| 20260507205508 | 58 | 244 | 2.6 | 4.3 | 0.00 | 0.87 | 0.87 | 88 | 1011.3 |
| 20260507205307 | 58 | 240 | 1.7 | 4.3 | 0.00 | 0.87 | 0.87 | 88 | 1011.3 |
| 20260507205206 | 58 | 215 | 1.7 | 4.3 | 0.00 | 0.87 | 0.87 | 88 | 1011.3 |
| 20260507205013 | 58 | 244 | 1.7 | 4.3 | 0.00 | 0.87 | 0.87 | 88 | 1011.3 |
| 20260507204907 | 58 | 240 | 1.7 | 4.3 | 0.00 | 0.87 | 0.87 | 88 | 1011.3 |
| 20260507204707 | 58 | 257 | 1.7 | 5.2 | 0.00 | 0.87 | 0.87 | 88 | 1011.2 |
| 20260507204606 | 58 | 227 | 1.7 | 3.5 | 0.00 | 0.87 | 0.87 | 89 | 1011.3 |
| 20260507204507 | 58 | 231 | 0.9 | 3.5 | 0.00 | 0.87 | 0.87 | 89 | 1011.2 |
| 20260507204406 | 58 | 285 | 0.9 | 3.5 | 0.00 | 0.87 | 0.87 | 89 | 1011.2 |
| 20260507204305 | 58 | 256 | 0.9 | 3.5 | 0.00 | 0.87 | 0.87 | 89 | 1011.2 |
| 20260507204206 | 58 | 249 | 0.9 | 3.5 | 0.00 | 0.87 | 0.87 | 89 | 1011.2 |
| 20260507204106 | 58 | 237 | 0.9 | 3.5 | 0.01 | 0.87 | 0.87 | 89 | 1011.2 |
| 20260507203906 | 58 | 305 | 0.9 | 3.5 | 0.01 | 0.87 | 0.87 | 89 | 1011.2 |
| 20260507203807 | 58 | 248 | 0.9 | 3.5 | 0.01 | 0.87 | 0.87 | 89 | 1011.2 |
| 20260507203706 | 58 | 248 | 1.7 | 3.5 | 0.01 | 0.87 | 0.87 | 89 | 1011.2 |
| 20260507203606 | 58 | 248 | 1.7 | 3.5 | 0.01 | 0.87 | 0.87 | 89 | 1011.2 |
| 20260507203406 | 58 | 248 | 2.6 | 5.2 | 0.01 | 0.87 | 0.87 | 89 | 1011.2 |
| 20260507203306 | 58 | 261 | 2.6 | 5.2 | 0.01 | 0.87 | 0.87 | 89 | 1011.2 |
| 20260507203208 | 58 | 269 | 2.6 | 5.2 | 0.01 | 0.87 | 0.87 | 89 | 1011.2 |
| 20260507203107 | 58 | 254 | 2.6 | 5.2 | 0.01 | 0.87 | 0.87 | 89 | 1011.3 |
| 20260507203009 | 58 | 231 | 2.6 | 5.2 | 0.02 | 0.87 | 0.87 | 89 | 1011.3 |
| 20260507202914 | 58 | 237 | 2.6 | 5.2 | 0.02 | 0.87 | 0.87 | 89 | 1011.4 |
| 20260507202806 | 58 | 224 | 2.6 | 5.2 | 0.02 | 0.87 | 0.87 | 89 | 1011.3 |
| 20260507202707 | 58 | 245 | 2.6 | 5.2 | 0.02 | 0.87 | 0.87 | 89 | 1011.4 |
| 20260507202607 | 58 | 227 | 1.7 | 5.2 | 0.02 | 0.87 | 0.87 | 89 | 1011.4 |
| 20260507202407 | 58 | 234 | 1.7 | 5.2 | 0.02 | 0.87 | 0.87 | 89 | 1011.3 |
| 20260507202010 | 58 | 209 | 1.7 | 3.5 | 0.03 | 0.87 | 0.87 | 89 | 1011.3 |
| 20260507201906 | 58 | 191 | 1.7 | 3.5 | 0.03 | 0.87 | 0.87 | 89 | 1011.3 |
| 20260507201806 | 58 | 206 | 1.7 | 3.5 | 0.04 | 0.87 | 0.87 | 89 | 1011.3 |
| 20260507201708 | 58 | 260 | 1.7 | 3.5 | 0.04 | 0.87 | 0.87 | 89 | 1011.3 |
| 20260507201508 | 58 | 226 | 0.9 | 3.5 | 0.04 | 0.87 | 0.87 | 89 | 1011.4 |
| 20260507201408 | 58 | 242 | 1.7 | 3.5 | 0.04 | 0.87 | 0.87 | 89 | 1011.4 |
| 20260507201305 | 58 | 259 | 1.7 | 5.2 | 0.05 | 0.87 | 0.87 | 89 | 1011.4 |
| 20260507201207 | 58 | 259 | 1.7 | 5.2 | 0.05 | 0.87 | 0.87 | 89 | 1011.3 |
| 20260507201107 | 58 | 259 | 1.7 | 5.2 | 0.05 | 0.87 | 0.87 | 89 | 1011.3 |
| 20260507201008 | 58 | 259 | 1.7 | 5.2 | 0.06 | 0.87 | 0.87 | 89 | 1011.3 |
| 20260507200907 | 58 | 254 | 1.7 | 5.2 | 0.06 | 0.87 | 0.87 | 89 | 1011.3 |
| 20260507200806 | 58 | 346 | 1.7 | 5.2 | 0.06 | 0.87 | 0.87 | 89 | 1011.3 |
| 20260507200706 | 58 | 346 | 1.7 | 5.2 | 0.07 | 0.87 | 0.87 | 89 | 1011.3 |
| 20260507200606 | 58 | 360 | 1.7 | 5.2 | 0.07 | 0.87 | 0.87 | 89 | 1011.3 |
| 20260507200509 | 58 | 271 | 1.7 | 5.2 | 0.08 | 0.87 | 0.87 | 89 | 1011.4 |
| 20260507200406 | 58 | 260 | 1.7 | 5.2 | 0.08 | 0.87 | 0.87 | 89 | 1011.3 |
| 20260507200306 | 58 | 6 | 1.7 | 5.2 | 0.09 | 0.87 | 0.87 | 89 | 1011.2 |
| 20260507200206 | 58 | 247 | 1.7 | 5.2 | 0.09 | 0.87 | 0.87 | 89 | 1011.3 |
| 20260507200108 | 58 | 264 | 1.7 | 5.2 | 0.09 | 0.87 | 0.87 | 89 | 1011.2 |
| 20260507195809 | 58 | 231 | 1.7 | 5.2 | 0.13 | 0.87 | 0.87 | 89 | 1011.3 |
| 20260507195708 | 58 | 287 | 1.7 | 5.2 | 0.14 | 0.87 | 0.87 | 88 | 1011.2 |
| 20260507195606 | 58 | 339 | 1.7 | 5.2 | 0.17 | 0.87 | 0.87 | 88 | 1011.2 |
| 20260507195406 | 58 | 290 | 2.6 | 5.2 | 0.20 | 0.87 | 0.87 | 88 | 1011.2 |
| 20260507195308 | 58 | 239 | 2.6 | 5.2 | 0.23 | 0.87 | 0.87 | 88 | 1011.3 |
| 20260507195206 | 58 | 225 | 2.6 | 5.2 | 0.24 | 0.87 | 0.87 | 88 | 1011.2 |
| 20260507195106 | 58 | 266 | 2.6 | 8.7 | 0.27 | 0.87 | 0.87 | 88 | 1011.2 |
| 20260507195010 | 58 | 244 | 2.6 | 8.7 | 0.28 | 0.87 | 0.87 | 88 | 1011.2 |
| 20260507194907 | 58 | 210 | 3.5 | 8.7 | 0.29 | 0.87 | 0.87 | 88 | 1011.2 |
| 20260507194817 | 58 | 258 | 3.5 | 8.7 | 0.29 | 0.87 | 0.87 | 88 | 1011.2 |
| 20260507194721 | 58 | 210 | 3.5 | 8.7 | 0.29 | 0.87 | 0.87 | 88 | 1011.1 |
| 20260507194408 | 58 | 224 | 3.5 | 8.7 | 0.29 | 0.87 | 0.87 | 88 | 1011.1 |
| 20260507194206 | 58 | 307 | 4.3 | 8.7 | 0.29 | 0.87 | 0.87 | 88 | 1011.0 |
| 20260507194109 | 58 | 263 | 4.3 | 9.6 | 0.28 | 0.86 | 0.86 | 88 | 1011.0 |
| 20260507194008 | 58 | 309 | 4.3 | 9.6 | 0.28 | 0.86 | 0.86 | 87 | 1011.1 |
| 20260507193905 | 58 | 298 | 5.2 | 9.6 | 0.28 | 0.86 | 0.86 | 87 | 1011.1 |
| 20260507193807 | 58 | 335 | 5.2 | 9.6 | 0.28 | 0.86 | 0.86 | 87 | 1011.0 |
| 20260507193707 | 58 | 304 | 5.2 | 9.6 | 0.28 | 0.86 | 0.86 | 87 | 1011.1 |
| 20260507193607 | 58 | 314 | 6.1 | 9.6 | 0.28 | 0.86 | 0.86 | 87 | 1011.1 |
| 20260507193510 | 58 | 317 | 6.1 | 9.6 | 0.28 | 0.86 | 0.86 | 87 | 1011.1 |
| 20260507193406 | 58 | 266 | 6.1 | 11.3 | 0.28 | 0.86 | 0.86 | 87 | 1011.1 |
| 20260507193306 | 58 | 344 | 6.1 | 11.3 | 0.28 | 0.86 | 0.86 | 87 | 1011.1 |
| 20260507193206 | 58 | 299 | 6.1 | 12.2 | 0.28 | 0.86 | 0.86 | 87 | 1011.2 |
| 20260507193108 | 58 | 335 | 7.0 | 12.2 | 0.28 | 0.86 | 0.86 | 86 | 1011.1 |
| 20260507193008 | 58 | 261 | 7.0 | 12.2 | 0.28 | 0.85 | 0.85 | 86 | 1011.2 |
| 20260507192907 | 58 | 293 | 7.0 | 12.2 | 0.28 | 0.85 | 0.85 | 86 | 1011.1 |
| 20260507192807 | 58 | 294 | 7.0 | 12.2 | 0.28 | 0.85 | 0.85 | 86 | 1011.2 |
| 20260507192706 | 58 | 330 | 7.0 | 12.2 | 0.28 | 0.85 | 0.85 | 86 | 1011.1 |
| 20260507192606 | 58 | 325 | 7.0 | 12.2 | 0.28 | 0.85 | 0.85 | 86 | 1011.1 |
| 20260507192407 | 58 | 288 | 7.0 | 12.2 | 0.28 | 0.85 | 0.85 | 86 | 1011.2 |
| 20260507192306 | 58 | 241 | 6.1 | 12.2 | 0.27 | 0.84 | 0.84 | 86 | 1011.2 |
| 20260507192206 | 58 | 312 | 6.1 | 12.2 | 0.27 | 0.84 | 0.84 | 86 | 1011.2 |
| 20260507192106 | 58 | 330 | 6.1 | 10.4 | 0.27 | 0.84 | 0.84 | 86 | 1011.2 |
| 20260507192008 | 58 | 321 | 6.1 | 9.6 | 0.26 | 0.83 | 0.83 | 85 | 1011.2 |
| 20260507191906 | 58 | 320 | 6.1 | 9.6 | 0.26 | 0.83 | 0.83 | 85 | 1011.2 |
| 20260507191813 | 58 | 265 | 6.1 | 12.2 | 0.25 | 0.83 | 0.83 | 85 | 1011.2 |
| 20260507185807 | 60 | 276 | 5.2 | 12.2 | 0.16 | 0.73 | 0.73 | 80 | 1011.1 |
| 20260507185707 | 60 | 313 | 4.3 | 12.2 | 0.15 | 0.72 | 0.72 | 79 | 1011.2 |
| 20260507185408 | 61 | 330 | 4.3 | 10.4 | 0.09 | 0.66 | 0.66 | 78 | 1011.1 |
| 20260507185306 | 61 | 320 | 4.3 | 9.6 | 0.06 | 0.64 | 0.64 | 77 | 1011.0 |
| 20260507185209 | 61 | 339 | 4.3 | 9.6 | 0.05 | 0.62 | 0.62 | 77 | 1011.0 |
| 20260507185109 | 61 | 306 | 4.3 | 13.9 | 0.02 | 0.60 | 0.60 | 76 | 1011.1 |
| 20260507185011 | 62 | 281 | 4.3 | 13.9 | 0.01 | 0.58 | 0.58 | 76 | 1011.0 |
| 20260507184910 | 62 | 30 | 4.3 | 13.9 | 0.00 | 0.57 | 0.57 | 75 | 1011.0 |
| 20260507184807 | 62 | 120 | 4.3 | 13.9 | 0.00 | 0.57 | 0.57 | 75 | 1011.0 |
| 20260507184707 | 62 | 209 | 4.3 | 13.9 | 0.00 | 0.57 | 0.57 | 75 | 1011.0 |
| 20260507184609 | 62 | 345 | 4.3 | 13.9 | 0.00 | 0.57 | 0.57 | 75 | 1010.8 |
| 20260507184511 | 63 | 319 | 4.3 | 13.9 | 0.00 | 0.57 | 0.57 | 75 | 1010.9 |
| 20260507184408 | 63 | 325 | 4.3 | 13.9 | 0.00 | 0.57 | 0.57 | 75 | 1010.9 |
| 20260507184307 | 63 | 292 | 3.5 | 13.9 | 0.00 | 0.57 | 0.57 | 76 | 1010.8 |
| 20260507184206 | 64 | 246 | 3.5 | 9.6 | 0.00 | 0.57 | 0.57 | 77 | 1010.7 |
| 20260507184107 | 64 | 298 | 2.6 | 9.6 | 0.00 | 0.57 | 0.57 | 77 | 1010.8 |
| 20260507184014 | 64 | 313 | 2.6 | 9.6 | 0.00 | 0.57 | 0.57 | 79 | 1010.8 |
| 20260507183809 | 65 | 354 | 2.6 | 7.8 | 0.00 | 0.57 | 0.57 | 79 | 1010.5 |
| 20260507183707 | 65 | 342 | 2.6 | 7.0 | 0.00 | 0.57 | 0.57 | 79 | 1010.5 |
| 20260507183607 | 65 | 354 | 2.6 | 7.0 | 0.00 | 0.57 | 0.57 | 80 | 1010.4 |
| 20260507183509 | 65 | 314 | 2.6 | 7.8 | 0.00 | 0.57 | 0.57 | 80 | 1010.5 |
| 20260507183306 | 65 | 343 | 2.6 | 7.8 | 0.00 | 0.57 | 0.57 | 80 | 1010.4 |
| 20260507183207 | 65 | 8 | 2.6 | 7.8 | 0.00 | 0.57 | 0.57 | 80 | 1010.3 |
| 20260507183008 | 65 | 325 | 3.5 | 7.8 | 0.00 | 0.57 | 0.57 | 80 | 1010.2 |
| 20260507182907 | 65 | 16 | 3.5 | 7.8 | 0.00 | 0.57 | 0.57 | 80 | 1010.2 |
| 20260507182707 | 65 | 106 | 3.5 | 8.7 | 0.00 | 0.57 | 0.57 | 79 | 1010.1 |
| 20260507182608 | 65 | 310 | 3.5 | 8.7 | 0.00 | 0.57 | 0.57 | 79 | 1010.1 |
| 20260507182509 | 65 | 37 | 3.5 | 8.7 | 0.00 | 0.57 | 0.57 | 79 | 1010.1 |
| 20260507182307 | 65 | 98 | 4.3 | 8.7 | 0.00 | 0.57 | 0.57 | 79 | 1010.1 |
| 20260507182206 | 65 | 56 | 4.3 | 9.6 | 0.00 | 0.57 | 0.57 | 79 | 1010.0 |
| 20260507182106 | 65 | 87 | 4.3 | 9.6 | 0.00 | 0.57 | 0.57 | 79 | 1010.0 |
| 20260507182009 | 65 | 68 | 4.3 | 9.6 | 0.00 | 0.57 | 0.57 | 79 | 1010.1 |
| 20260507181907 | 65 | 277 | 3.5 | 9.6 | 0.00 | 0.57 | 0.57 | 79 | 1010.2 |
| 20260507181807 | 65 | 81 | 3.5 | 9.6 | 0.00 | 0.57 | 0.57 | 79 | 1010.2 |
| 20260507181708 | 65 | 21 | 3.5 | 9.6 | 0.00 | 0.57 | 0.57 | 79 | 1010.0 |
| 20260507181607 | 65 | 32 | 4.3 | 9.6 | 0.00 | 0.57 | 0.57 | 79 | 1010.0 |
| 20260507181509 | 65 | 93 | 4.3 | 9.6 | 0.00 | 0.57 | 0.57 | 79 | 1010.0 |
| 20260507181407 | 65 | 13 | 4.3 | 9.6 | 0.00 | 0.57 | 0.57 | 79 | 1010.1 |
| 20260507181306 | 65 | 342 | 4.3 | 9.6 | 0.00 | 0.57 | 0.57 | 79 | 1010.0 |
| 20260507181207 | 65 | 42 | 4.3 | 9.6 | 0.00 | 0.57 | 0.57 | 79 | 1010.0 |
| 20260507181107 | 65 | 68 | 4.3 | 9.6 | 0.00 | 0.57 | 0.57 | 79 | 1010.0 |
| 20260507181009 | 65 | 32 | 4.3 | 9.6 | 0.00 | 0.57 | 0.57 | 79 | 1010.0 |
| 20260507180908 | 65 | 56 | 4.3 | 9.6 | 0.00 | 0.57 | 0.57 | 79 | 1010.0 |
| 20260507180807 | 65 | 39 | 4.3 | 9.6 | 0.00 | 0.57 | 0.57 | 79 | 1009.9 |
| 20260507180710 | 65 | 19 | 4.3 | 9.6 | 0.00 | 0.57 | 0.57 | 79 | 1009.9 |
| 20260507180607 | 65 | 73 | 4.3 | 9.6 | 0.00 | 0.57 | 0.57 | 79 | 1009.9 |
| 20260507180407 | 65 | 46 | 3.5 | 9.6 | 0.00 | 0.57 | 0.57 | 79 | 1009.9 |
| 20260507180308 | 65 | 52 | 3.5 | 9.6 | 0.00 | 0.57 | 0.57 | 79 | 1009.9 |
| 20260507180207 | 65 | 39 | 3.5 | 9.6 | 0.00 | 0.57 | 0.57 | 79 | 1009.9 |
| 20260507180109 | 65 | 51 | 3.5 | 9.6 | 0.00 | 0.57 | 0.57 | 79 | 1009.9 |
| 20260507180008 | 65 | 32 | 2.6 | 9.6 | 0.00 | 0.57 | 0.57 | 79 | 1010.0 |
| 20260507175906 | 65 | 6 | 3.5 | 9.6 | 0.00 | 0.57 | 0.57 | 79 | 1009.9 |
| 20260507175806 | 65 | 355 | 3.5 | 9.6 | 0.00 | 0.57 | 0.57 | 78 | 1009.9 |
| 20260507175511 | 65 | 57 | 3.5 | 9.6 | 0.00 | 0.57 | 0.57 | 78 | 1010.0 |
| 20260507175307 | 65 | 59 | 2.6 | 8.7 | 0.00 | 0.57 | 0.57 | 78 | 1009.9 |
| 20260507175108 | 66 | 33 | 3.5 | 7.8 | 0.00 | 0.57 | 0.57 | 78 | 1009.9 |
| 20260507174906 | 65 | 35 | 3.5 | 7.8 | 0.00 | 0.57 | 0.57 | 78 | 1010.0 |
| 20260507174805 | 65 | 69 | 3.5 | 7.8 | 0.00 | 0.57 | 0.57 | 78 | 1009.9 |
| 20260507174705 | 65 | 59 | 3.5 | 7.8 | 0.00 | 0.57 | 0.57 | 78 | 1009.9 |
| 20260507174605 | 66 | 75 | 3.5 | 7.8 | 0.00 | 0.57 | 0.57 | 78 | 1010.0 |
| 20260507174513 | 65 | 37 | 2.6 | 7.8 | 0.00 | 0.57 | 0.57 | 78 | 1009.9 |
| 20260507174406 | 65 | 34 | 2.6 | 7.8 | 0.00 | 0.57 | 0.57 | 78 | 1009.9 |
| 20260507174305 | 65 | 335 | 2.6 | 7.8 | 0.00 | 0.57 | 0.57 | 78 | 1009.9 |
| 20260507174207 | 65 | 70 | 2.6 | 7.8 | 0.00 | 0.57 | 0.57 | 78 | 1010.0 |
| 20260507174107 | 65 | 32 | 2.6 | 7.8 | 0.00 | 0.57 | 0.57 | 78 | 1009.9 |
| 20260507174008 | 66 | 325 | 2.6 | 7.8 | 0.00 | 0.57 | 0.57 | 78 | 1009.9 |
| 20260507173906 | 66 | 68 | 1.7 | 7.0 | 0.00 | 0.57 | 0.57 | 78 | 1009.9 |
| 20260507173805 | 66 | 67 | 2.6 | 7.0 | 0.00 | 0.57 | 0.57 | 78 | 1010.0 |
| 20260507173706 | 66 | 35 | 2.6 | 7.0 | 0.00 | 0.57 | 0.57 | 78 | 1010.0 |
| 20260507173606 | 66 | 60 | 2.6 | 8.7 | 0.00 | 0.57 | 0.57 | 78 | 1009.9 |
| 20260507173507 | 66 | 42 | 2.6 | 8.7 | 0.00 | 0.57 | 0.57 | 78 | 1010.0 |
| 20260507173406 | 66 | 109 | 2.6 | 8.7 | 0.00 | 0.57 | 0.57 | 78 | 1009.9 |
| 20260507173306 | 66 | 321 | 2.6 | 8.7 | 0.00 | 0.57 | 0.57 | 78 | 1009.9 |
| 20260507173205 | 66 | 308 | 2.6 | 8.7 | 0.00 | 0.57 | 0.57 | 78 | 1010.0 |
| 20260507173107 | 65 | 16 | 2.6 | 8.7 | 0.00 | 0.57 | 0.57 | 78 | 1009.9 |
| 20260507173010 | 65 | 8 | 2.6 | 8.7 | 0.00 | 0.57 | 0.57 | 78 | 1010.0 |
| 20260507172908 | 65 | 53 | 3.5 | 8.7 | 0.00 | 0.57 | 0.57 | 78 | 1009.9 |
| 20260507172806 | 65 | 53 | 3.5 | 8.7 | 0.00 | 0.57 | 0.57 | 78 | 1009.9 |
| 20260507172508 | 65 | 60 | 3.5 | 8.7 | 0.00 | 0.57 | 0.57 | 78 | 1009.9 |
| 20260507172205 | 65 | 69 | 3.5 | 8.7 | 0.00 | 0.57 | 0.57 | 78 | 1009.9 |
| 20260507172106 | 66 | 41 | 3.5 | 8.7 | 0.00 | 0.57 | 0.57 | 78 | 1009.9 |
| 20260507172008 | 66 | 76 | 3.5 | 8.7 | 0.00 | 0.57 | 0.57 | 78 | 1009.9 |
| 20260507171907 | 66 | 31 | 3.5 | 8.7 | 0.00 | 0.57 | 0.57 | 78 | 1009.9 |
| 20260507171705 | 66 | 80 | 3.5 | 8.7 | 0.00 | 0.57 | 0.57 | 78 | 1009.8 |
| 20260507171607 | 66 | 81 | 3.5 | 8.7 | 0.00 | 0.57 | 0.57 | 78 | 1009.9 |
| 20260507171509 | 66 | 48 | 3.5 | 8.7 | 0.00 | 0.57 | 0.57 | 78 | 1009.9 |
| 20260507171406 | 66 | 37 | 3.5 | 8.7 | 0.00 | 0.57 | 0.57 | 78 | 1009.8 |
| 20260507171305 | 66 | 6 | 3.5 | 8.7 | 0.00 | 0.57 | 0.57 | 78 | 1009.9 |
| 20260507171206 | 66 | 25 | 2.6 | 8.7 | 0.00 | 0.57 | 0.57 | 78 | 1009.9 |
| 20260507171106 | 66 | 68 | 2.6 | 7.8 | 0.00 | 0.57 | 0.57 | 78 | 1009.8 |
| 20260507171008 | 66 | 49 | 2.6 | 7.8 | 0.00 | 0.57 | 0.57 | 78 | 1009.8 |
| 20260507170906 | 66 | 94 | 3.5 | 7.8 | 0.00 | 0.57 | 0.57 | 78 | 1009.9 |
| 20260507170705 | 66 | 12 | 2.6 | 7.8 | 0.00 | 0.57 | 0.57 | 78 | 1009.8 |
| 20260507170407 | 66 | 9 | 2.6 | 7.0 | 0.00 | 0.57 | 0.57 | 77 | 1009.7 |
| 20260507170307 | 66 | 50 | 2.6 | 7.0 | 0.00 | 0.57 | 0.57 | 77 | 1009.8 |
| 20260507170206 | 66 | 58 | 2.6 | 7.0 | 0.00 | 0.57 | 0.57 | 77 | 1009.8 |
| 20260507170009 | 66 | 29 | 2.6 | 7.0 | 0.00 | 0.57 | 0.57 | 77 | 1009.8 |
| 20260507165905 | 66 | 60 | 2.6 | 7.0 | 0.00 | 0.57 | 0.57 | 77 | 1009.8 |
| 20260507165806 | 66 | 25 | 2.6 | 6.1 | 0.00 | 0.57 | 0.57 | 77 | 1009.8 |
| 20260507165706 | 66 | 38 | 1.7 | 6.1 | 0.00 | 0.57 | 0.57 | 77 | 1009.8 |
| 20260507165606 | 66 | 46 | 1.7 | 6.1 | 0.00 | 0.57 | 0.57 | 77 | 1009.8 |
| 20260507165507 | 66 | 20 | 1.7 | 6.1 | 0.00 | 0.57 | 0.57 | 77 | 1009.8 |
| 20260507165307 | 66 | 37 | 1.7 | 6.1 | 0.00 | 0.57 | 0.57 | 77 | 1009.8 |
| 20260507165026 | 66 | 13 | 2.6 | 6.1 | 0.00 | 0.57 | 0.57 | 77 | 1009.7 |
| 20260507164916 | 66 | 62 | 2.6 | 6.1 | 0.00 | 0.57 | 0.57 | 77 | 1009.7 |
| 20260507164806 | 66 | 325 | 2.6 | 6.1 | 0.00 | 0.57 | 0.57 | 77 | 1009.7 |
| 20260507164719 | 66 | 29 | 2.6 | 6.1 | 0.00 | 0.57 | 0.57 | 77 | 1009.7 |
| 20260507164523 | 66 | 29 | 2.6 | 6.1 | 0.00 | 0.57 | 0.57 | 77 | 1009.7 |
| 20260507164420 | 66 | 18 | 2.6 | 6.1 | 0.00 | 0.57 | 0.57 | 77 | 1009.7 |
| 20260507164307 | 66 | 20 | 2.6 | 5.2 | 0.00 | 0.57 | 0.57 | 76 | 1009.7 |
| 20260507164207 | 66 | 31 | 1.7 | 5.2 | 0.00 | 0.57 | 0.57 | 76 | 1009.7 |
| 20260507164112 | 66 | 62 | 1.7 | 4.3 | 0.00 | 0.57 | 0.57 | 77 | 1009.7 |
| 20260507164011 | 66 | 62 | 1.7 | 4.3 | 0.00 | 0.57 | 0.57 | 77 | 1009.7 |
| 20260507163908 | 66 | 27 | 1.7 | 5.2 | 0.00 | 0.57 | 0.57 | 77 | 1009.7 |
| 20260507163811 | 66 | 64 | 1.7 | 6.1 | 0.00 | 0.57 | 0.57 | 77 | 1009.7 |
| 20260507163712 | 66 | 305 | 1.7 | 6.1 | 0.00 | 0.57 | 0.57 | 77 | 1009.7 |
| 20260507163605 | 66 | 13 | 1.7 | 6.1 | 0.00 | 0.57 | 0.57 | 77 | 1009.6 |
| 20260507163513 | 66 | 56 | 1.7 | 6.1 | 0.00 | 0.57 | 0.57 | 77 | 1009.7 |
| 20260507163411 | 66 | 81 | 1.7 | 6.1 | 0.00 | 0.57 | 0.57 | 77 | 1009.7 |
| 20260507163310 | 66 | 27 | 1.7 | 6.1 | 0.00 | 0.57 | 0.57 | 77 | 1009.6 |
| 20260507163205 | 66 | 26 | 2.6 | 6.1 | 0.00 | 0.57 | 0.57 | 77 | 1009.7 |
| 20260507163107 | 66 | 315 | 2.6 | 6.1 | 0.00 | 0.57 | 0.57 | 77 | 1009.7 |
| 20260507163012 | 66 | 59 | 1.7 | 5.2 | 0.00 | 0.57 | 0.57 | 77 | 1009.7 |
| 20260507162905 | 66 | 39 | 1.7 | 5.2 | 0.00 | 0.57 | 0.57 | 77 | 1009.7 |
| 20260507162817 | 66 | 29 | 1.7 | 5.2 | 0.00 | 0.57 | 0.57 | 77 | 1009.6 |
| 20260507162706 | 66 | 71 | 1.7 | 5.2 | 0.00 | 0.57 | 0.57 | 77 | 1009.7 |
| 20260507162612 | 66 | 44 | 1.7 | 5.2 | 0.00 | 0.57 | 0.57 | 77 | 1009.7 |
| 20260507162511 | 66 | 51 | 1.7 | 5.2 | 0.00 | 0.57 | 0.57 | 77 | 1009.7 |
| 20260507162421 | 66 | 37 | 0.9 | 5.2 | 0.00 | 0.57 | 0.57 | 77 | 1009.7 |
| 20260507162313 | 66 | 50 | 1.7 | 3.5 | 0.00 | 0.57 | 0.57 | 77 | 1009.7 |
| 20260507162219 | 66 | 45 | 0.9 | 5.2 | 0.00 | 0.57 | 0.57 | 77 | 1009.6 |
| 20260507162121 | 66 | 31 | 0.9 | 7.8 | 0.00 | 0.57 | 0.57 | 77 | 1009.6 |
| 20260507161921 | 66 | 51 | 0.9 | 7.8 | 0.00 | 0.57 | 0.57 | 77 | 1009.5 |
| 20260507161712 | 66 | 304 | 0.9 | 7.8 | 0.00 | 0.57 | 0.57 | 78 | 1009.5 |
| 20260507161516 | 66 | 335 | 1.7 | 7.8 | 0.00 | 0.57 | 0.57 | 78 | 1009.5 |
| 20260507161414 | 66 | 48 | 1.7 | 7.8 | 0.00 | 0.57 | 0.57 | 78 | 1009.4 |
| 20260507161321 | 66 | 67 | 1.7 | 7.8 | 0.00 | 0.57 | 0.57 | 78 | 1009.4 |
| 20260507161218 | 66 | 358 | 2.6 | 7.0 | 0.00 | 0.57 | 0.57 | 78 | 1009.4 |
| 20260507161010 | 66 | 316 | 3.5 | 7.0 | 0.00 | 0.57 | 0.57 | 78 | 1009.4 |
| 20260507160819 | 65 | 271 | 4.3 | 8.7 | 0.00 | 0.57 | 0.57 | 78 | 1009.4 |
| 20260507160707 | 65 | 319 | 4.3 | 8.7 | 0.00 | 0.57 | 0.57 | 77 | 1009.3 |
| 20260507160619 | 65 | 72 | 5.2 | 8.7 | 0.00 | 0.57 | 0.57 | 77 | 1009.3 |
| 20260507160420 | 65 | 64 | 5.2 | 8.7 | 0.00 | 0.57 | 0.57 | 77 | 1009.4 |
| 20260507160305 | 65 | 46 | 5.2 | 9.6 | 0.00 | 0.57 | 0.57 | 77 | 1009.4 |
| 20260507160206 | 65 | 7 | 6.1 | 9.6 | 0.00 | 0.57 | 0.57 | 77 | 1009.4 |
| 20260507160107 | 65 | 58 | 6.1 | 9.6 | 0.00 | 0.57 | 0.57 | 77 | 1009.3 |
| 20260507155807 | 65 | 49 | 6.1 | 9.6 | 0.00 | 0.57 | 0.57 | 76 | 1009.2 |
| 20260507155720 | 65 | 56 | 6.1 | 9.6 | 0.00 | 0.57 | 0.57 | 76 | 1009.1 |
| 20260507155607 | 65 | 62 | 6.1 | 9.6 | 0.00 | 0.57 | 0.57 | 76 | 1009.2 |
| 20260507155514 | 65 | 360 | 5.2 | 9.6 | 0.00 | 0.57 | 0.57 | 75 | 1009.1 |
| 20260507155407 | 65 | 65 | 5.2 | 9.6 | 0.00 | 0.57 | 0.57 | 75 | 1009.1 |
| 20260507155306 | 65 | 73 | 4.3 | 9.6 | 0.00 | 0.57 | 0.57 | 75 | 1009.1 |
| 20260507155206 | 66 | 48 | 4.3 | 9.6 | 0.00 | 0.57 | 0.57 | 75 | 1009.1 |
| 20260507155106 | 66 | 64 | 4.3 | 9.6 | 0.00 | 0.57 | 0.57 | 76 | 1009.1 |
| 20260507155010 | 66 | 51 | 3.5 | 8.7 | 0.00 | 0.57 | 0.57 | 76 | 1009.1 |
| 20260507154906 | 66 | 39 | 3.5 | 7.8 | 0.00 | 0.57 | 0.57 | 76 | 1009.1 |
| 20260507154806 | 66 | 62 | 2.6 | 7.8 | 0.00 | 0.57 | 0.57 | 76 | 1009.1 |
| 20260507154705 | 66 | 102 | 2.6 | 7.8 | 0.00 | 0.57 | 0.57 | 76 | 1009.0 |
| 20260507154606 | 66 | 46 | 2.6 | 7.8 | 0.00 | 0.57 | 0.57 | 76 | 1009.0 |
| 20260507154507 | 66 | 88 | 2.6 | 7.8 | 0.00 | 0.57 | 0.57 | 76 | 1009.0 |
| 20260507154405 | 66 | 55 | 2.6 | 7.8 | 0.00 | 0.57 | 0.57 | 76 | 1009.0 |
| 20260507154307 | 66 | 106 | 2.6 | 7.8 | 0.00 | 0.57 | 0.57 | 76 | 1009.0 |
| 20260507154009 | 66 | 41 | 2.6 | 7.0 | 0.00 | 0.57 | 0.57 | 77 | 1008.9 |
| 20260507153807 | 66 | 8 | 3.5 | 7.8 | 0.00 | 0.57 | 0.57 | 77 | 1009.0 |
| 20260507153705 | 66 | 25 | 3.5 | 7.8 | 0.00 | 0.57 | 0.57 | 77 | 1009.0 |
| 20260507153608 | 66 | 318 | 3.5 | 7.8 | 0.00 | 0.57 | 0.57 | 77 | 1008.9 |
| 20260507153509 | 66 | 308 | 3.5 | 7.8 | 0.00 | 0.57 | 0.57 | 77 | 1008.9 |
| 20260507153406 | 66 | 4 | 3.5 | 7.8 | 0.00 | 0.57 | 0.57 | 77 | 1008.9 |
| 20260507153305 | 66 | 52 | 3.5 | 7.8 | 0.00 | 0.57 | 0.57 | 77 | 1008.9 |
| 20260507153206 | 66 | 69 | 3.5 | 7.8 | 0.00 | 0.57 | 0.57 | 77 | 1009.0 |
| 20260507153107 | 66 | 75 | 3.5 | 7.8 | 0.00 | 0.57 | 0.57 | 77 | 1008.9 |
| 20260507153007 | 66 | 44 | 2.6 | 7.8 | 0.00 | 0.57 | 0.57 | 77 | 1008.9 |
| 20260507152906 | 66 | 64 | 3.5 | 7.8 | 0.00 | 0.57 | 0.57 | 77 | 1008.9 |
| 20260507152806 | 66 | 341 | 3.5 | 7.8 | 0.00 | 0.57 | 0.57 | 77 | 1009.0 |
| 20260507152606 | 66 | 308 | 3.5 | 8.7 | 0.00 | 0.57 | 0.57 | 77 | 1009.0 |
| 20260507152509 | 66 | 346 | 3.5 | 8.7 | 0.00 | 0.57 | 0.57 | 77 | 1008.9 |
| 20260507152306 | 66 | 72 | 3.5 | 8.7 | 0.00 | 0.57 | 0.57 | 78 | 1008.9 |
| 20260507152205 | 66 | 39 | 4.3 | 8.7 | 0.00 | 0.57 | 0.57 | 78 | 1009.0 |
| 20260507152106 | 66 | 25 | 3.5 | 8.7 | 0.00 | 0.57 | 0.57 | 78 | 1008.9 |
| 20260507152010 | 66 | 11 | 3.5 | 8.7 | 0.00 | 0.57 | 0.57 | 78 | 1008.9 |
| 20260507151807 | 65 | 46 | 4.3 | 8.7 | 0.00 | 0.57 | 0.57 | 77 | 1008.9 |
| 20260507151707 | 65 | 67 | 4.3 | 8.7 | 0.00 | 0.57 | 0.57 | 77 | 1008.9 |
| 20260507151409 | 65 | 78 | 4.3 | 10.4 | 0.00 | 0.57 | 0.57 | 78 | 1008.9 |
| 20260507151306 | 66 | 32 | 5.2 | 10.4 | 0.00 | 0.57 | 0.57 | 78 | 1009.0 |
| 20260507151206 | 65 | 10 | 5.2 | 11.3 | 0.00 | 0.57 | 0.57 | 78 | 1009.0 |
| 20260507151107 | 65 | 118 | 5.2 | 11.3 | 0.00 | 0.57 | 0.57 | 78 | 1009.0 |
| 20260507151008 | 65 | 293 | 5.2 | 11.3 | 0.00 | 0.57 | 0.57 | 78 | 1009.0 |
| 20260507150905 | 65 | 73 | 6.1 | 11.3 | 0.00 | 0.57 | 0.57 | 78 | 1009.1 |
| 20260507150806 | 65 | 1 | 6.1 | 11.3 | 0.00 | 0.57 | 0.57 | 78 | 1009.0 |
| 20260507150707 | 65 | 56 | 6.1 | 11.3 | 0.00 | 0.57 | 0.57 | 78 | 1009.0 |
| 20260507150607 | 65 | 49 | 6.1 | 11.3 | 0.00 | 0.57 | 0.57 | 78 | 1009.1 |
| 20260507150510 | 65 | 49 | 6.1 | 11.3 | 0.00 | 0.57 | 0.57 | 78 | 1009.2 |
| 20260507150207 | 65 | 55 | 6.1 | 10.4 | 0.00 | 0.57 | 0.57 | 78 | 1009.1 |
| 20260507150106 | 65 | 37 | 7.0 | 10.4 | 0.00 | 0.57 | 0.57 | 78 | 1009.2 |
| 20260507150017 | 65 | 54 | 7.0 | 10.4 | 0.00 | 0.57 | 0.57 | 78 | 1009.2 |
| 20260507145907 | 65 | 59 | 7.0 | 10.4 | 0.00 | 0.57 | 0.57 | 78 | 1009.2 |
| 20260507145808 | 65 | 60 | 7.0 | 10.4 | 0.00 | 0.57 | 0.57 | 78 | 1009.2 |
| 20260507145707 | 65 | 57 | 7.0 | 10.4 | 0.00 | 0.57 | 0.57 | 78 | 1009.3 |
| 20260507145606 | 65 | 54 | 7.8 | 10.4 | 0.00 | 0.57 | 0.57 | 78 | 1009.3 |
| 20260507145507 | 65 | 49 | 7.8 | 10.4 | 0.00 | 0.57 | 0.57 | 77 | 1009.3 |
| 20260507145406 | 65 | 108 | 7.8 | 11.3 | 0.00 | 0.57 | 0.57 | 77 | 1009.3 |
| 20260507145307 | 65 | 62 | 7.8 | 11.3 | 0.00 | 0.57 | 0.57 | 77 | 1009.3 |
| 20260507145206 | 65 | 50 | 7.8 | 11.3 | 0.00 | 0.57 | 0.57 | 77 | 1009.3 |
| 20260507145109 | 65 | 64 | 7.8 | 11.3 | 0.00 | 0.57 | 0.57 | 77 | 1009.3 |
| 20260507145009 | 65 | 83 | 7.8 | 11.3 | 0.00 | 0.57 | 0.57 | 77 | 1009.3 |
| 20260507144906 | 65 | 58 | 7.8 | 11.3 | 0.00 | 0.57 | 0.57 | 77 | 1009.3 |
| 20260507144707 | 65 | 56 | 7.8 | 11.3 | 0.00 | 0.57 | 0.57 | 77 | 1009.4 |
| 20260507144606 | 65 | 51 | 7.8 | 11.3 | 0.00 | 0.57 | 0.57 | 77 | 1009.3 |
| 20260507144507 | 65 | 61 | 7.0 | 11.3 | 0.00 | 0.57 | 0.57 | 77 | 1009.4 |
| 20260507144405 | 65 | 62 | 7.8 | 10.4 | 0.00 | 0.57 | 0.57 | 78 | 1009.5 |
| 20260507144306 | 65 | 56 | 7.8 | 10.4 | 0.00 | 0.57 | 0.57 | 78 | 1009.5 |
| 20260507144205 | 65 | 52 | 7.8 | 10.4 | 0.00 | 0.57 | 0.57 | 78 | 1009.4 |
| 20260507144107 | 65 | 355 | 7.8 | 11.3 | 0.00 | 0.57 | 0.57 | 78 | 1009.4 |
| 20260507143905 | 65 | 54 | 7.8 | 11.3 | 0.00 | 0.57 | 0.57 | 78 | 1009.4 |
| 20260507143805 | 65 | 61 | 7.8 | 11.3 | 0.00 | 0.57 | 0.57 | 78 | 1009.3 |
| 20260507143605 | 65 | 75 | 7.8 | 11.3 | 0.00 | 0.57 | 0.57 | 78 | 1009.3 |
| 20260507143509 | 65 | 44 | 8.7 | 11.3 | 0.00 | 0.57 | 0.57 | 78 | 1009.3 |
| 20260507143407 | 65 | 24 | 8.7 | 11.3 | 0.00 | 0.57 | 0.57 | 78 | 1009.3 |
| 20260507143307 | 65 | 68 | 8.7 | 11.3 | 0.00 | 0.57 | 0.57 | 78 | 1009.4 |
| 20260507143207 | 65 | 63 | 7.8 | 11.3 | 0.00 | 0.57 | 0.57 | 77 | 1009.3 |
| 20260507143106 | 65 | 53 | 7.8 | 11.3 | 0.00 | 0.57 | 0.57 | 77 | 1009.3 |
| 20260507143008 | 65 | 17 | 7.8 | 11.3 | 0.00 | 0.57 | 0.57 | 77 | 1009.3 |
| 20260507142907 | 65 | 71 | 7.8 | 11.3 | 0.00 | 0.57 | 0.57 | 77 | 1009.3 |
| 20260507142807 | 65 | 41 | 7.8 | 11.3 | 0.00 | 0.57 | 0.57 | 77 | 1009.3 |
| 20260507142707 | 65 | 27 | 7.8 | 11.3 | 0.00 | 0.57 | 0.57 | 77 | 1009.2 |
| 20260507142605 | 65 | 54 | 7.8 | 11.3 | 0.00 | 0.57 | 0.57 | 77 | 1009.3 |
| 20260507142406 | 65 | 48 | 7.0 | 11.3 | 0.00 | 0.57 | 0.57 | 77 | 1009.3 |
| 20260507142308 | 65 | 46 | 7.0 | 11.3 | 0.00 | 0.57 | 0.57 | 77 | 1009.3 |
| 20260507142106 | 65 | 55 | 7.0 | 11.3 | 0.00 | 0.57 | 0.57 | 77 | 1009.4 |
| 20260507142012 | 65 | 37 | 7.0 | 11.3 | 0.00 | 0.57 | 0.57 | 77 | 1009.4 |
| 20260507141907 | 65 | 48 | 6.1 | 11.3 | 0.00 | 0.57 | 0.57 | 77 | 1009.5 |
| 20260507141805 | 65 | 56 | 6.1 | 10.4 | 0.00 | 0.57 | 0.57 | 77 | 1009.6 |
| 20260507141706 | 65 | 39 | 6.1 | 10.4 | 0.00 | 0.57 | 0.57 | 78 | 1009.6 |
| 20260507141607 | 65 | 74 | 7.0 | 11.3 | 0.00 | 0.57 | 0.57 | 78 | 1009.6 |
| 20260507141509 | 65 | 127 | 7.0 | 11.3 | 0.00 | 0.57 | 0.57 | 78 | 1009.6 |
| 20260507141406 | 65 | 69 | 7.0 | 11.3 | 0.00 | 0.57 | 0.57 | 78 | 1009.7 |
| 20260507141306 | 65 | 56 | 7.0 | 11.3 | 0.00 | 0.57 | 0.57 | 78 | 1009.7 |
| 20260507141207 | 65 | 63 | 7.0 | 11.3 | 0.00 | 0.57 | 0.57 | 77 | 1009.7 |
| 20260507141108 | 65 | 58 | 7.8 | 11.3 | 0.00 | 0.57 | 0.57 | 78 | 1009.6 |
| 20260507141007 | 65 | 70 | 7.8 | 11.3 | 0.00 | 0.57 | 0.57 | 77 | 1009.7 |
| 20260507140905 | 65 | 67 | 7.8 | 11.3 | 0.00 | 0.57 | 0.57 | 77 | 1009.6 |
| 20260507140805 | 65 | 49 | 7.8 | 11.3 | 0.00 | 0.57 | 0.57 | 77 | 1009.6 |
| 20260507140706 | 65 | 61 | 7.8 | 11.3 | 0.00 | 0.57 | 0.57 | 77 | 1009.7 |
| 20260507140508 | 65 | 53 | 7.8 | 11.3 | 0.00 | 0.57 | 0.57 | 76 | 1009.7 |
| 20260507140306 | 65 | 287 | 7.8 | 11.3 | 0.00 | 0.57 | 0.57 | 76 | 1009.7 |
| 20260507140205 | 65 | 56 | 7.8 | 11.3 | 0.00 | 0.57 | 0.57 | 77 | 1009.7 |
| 20260507140106 | 65 | 64 | 7.8 | 11.3 | 0.00 | 0.57 | 0.57 | 77 | 1009.7 |
| 20260507140011 | 65 | 67 | 7.8 | 11.3 | 0.00 | 0.57 | 0.57 | 77 | 1009.7 |
| 20260507135908 | 65 | 63 | 7.8 | 11.3 | 0.00 | 0.57 | 0.57 | 77 | 1009.6 |
| 20260507135809 | 65 | 56 | 7.8 | 11.3 | 0.00 | 0.57 | 0.57 | 77 | 1009.7 |
| 20260507135707 | 65 | 62 | 7.8 | 12.2 | 0.00 | 0.57 | 0.57 | 77 | 1009.7 |
| 20260507135509 | 65 | 39 | 8.7 | 12.2 | 0.00 | 0.57 | 0.57 | 76 | 1009.6 |
| 20260507135407 | 65 | 31 | 8.7 | 12.2 | 0.00 | 0.57 | 0.57 | 76 | 1009.7 |
| 20260507135309 | 65 | 35 | 8.7 | 13.0 | 0.00 | 0.57 | 0.57 | 77 | 1009.7 |
| 20260507135107 | 65 | 54 | 8.7 | 13.9 | 0.00 | 0.57 | 0.57 | 76 | 1009.7 |
| 20260507135009 | 65 | 47 | 8.7 | 13.9 | 0.00 | 0.57 | 0.57 | 76 | 1009.7 |
| 20260507134907 | 65 | 88 | 9.6 | 13.9 | 0.00 | 0.57 | 0.57 | 76 | 1009.6 |
| 20260507134807 | 65 | 76 | 9.6 | 13.9 | 0.00 | 0.57 | 0.57 | 76 | 1009.6 |
| 20260507134509 | 65 | 66 | 8.7 | 13.9 | 0.00 | 0.57 | 0.57 | 76 | 1009.7 |
| 20260507134408 | 65 | 108 | 8.7 | 13.9 | 0.00 | 0.57 | 0.57 | 76 | 1009.7 |
| 20260507134307 | 65 | 54 | 7.8 | 13.0 | 0.00 | 0.57 | 0.57 | 75 | 1009.7 |
| 20260507134209 | 65 | 66 | 7.8 | 13.0 | 0.00 | 0.57 | 0.57 | 75 | 1009.7 |
| 20260507134108 | 65 | 58 | 7.8 | 13.0 | 0.00 | 0.57 | 0.57 | 75 | 1009.7 |
| 20260507134011 | 65 | 46 | 7.8 | 13.0 | 0.00 | 0.57 | 0.57 | 75 | 1009.7 |
| 20260507133907 | 65 | 64 | 7.8 | 13.0 | 0.00 | 0.57 | 0.57 | 75 | 1009.7 |
| 20260507133808 | 65 | 33 | 7.8 | 13.0 | 0.00 | 0.57 | 0.57 | 75 | 1009.8 |
| 20260507133707 | 65 | 16 | 7.8 | 13.0 | 0.00 | 0.57 | 0.57 | 75 | 1009.8 |
| 20260507133607 | 65 | 33 | 7.8 | 13.0 | 0.00 | 0.57 | 0.57 | 76 | 1009.7 |
| 20260507133508 | 65 | 79 | 8.7 | 13.0 | 0.00 | 0.57 | 0.57 | 76 | 1009.7 |
| 20260507133407 | 65 | 41 | 8.7 | 13.0 | 0.00 | 0.57 | 0.57 | 76 | 1009.8 |
| 20260507133308 | 65 | 46 | 9.6 | 13.0 | 0.00 | 0.57 | 0.57 | 75 | 1009.7 |
| 20260507133207 | 65 | 77 | 9.6 | 13.0 | 0.00 | 0.57 | 0.57 | 75 | 1009.8 |
| 20260507133106 | 65 | 72 | 8.7 | 13.0 | 0.00 | 0.57 | 0.57 | 76 | 1009.8 |
| 20260507133009 | 65 | 56 | 8.7 | 13.0 | 0.00 | 0.57 | 0.57 | 76 | 1009.8 |
| 20260507132907 | 65 | 44 | 8.7 | 13.0 | 0.00 | 0.57 | 0.57 | 76 | 1009.8 |
| 20260507132807 | 65 | 34 | 8.7 | 13.0 | 0.00 | 0.57 | 0.57 | 76 | 1009.9 |
| 20260507132607 | 65 | 95 | 8.7 | 13.0 | 0.00 | 0.57 | 0.57 | 75 | 1009.9 |
| 20260507132508 | 65 | 55 | 8.7 | 13.0 | 0.00 | 0.57 | 0.57 | 75 | 1009.9 |
| 20260507132307 | 66 | 46 | 8.7 | 13.0 | 0.00 | 0.57 | 0.57 | 75 | 1009.8 |
| 20260507132207 | 65 | 82 | 8.7 | 13.0 | 0.00 | 0.57 | 0.57 | 75 | 1009.8 |
| 20260507132107 | 65 | 52 | 8.7 | 13.9 | 0.00 | 0.57 | 0.57 | 75 | 1009.8 |
| 20260507132010 | 65 | 174 | 8.7 | 13.9 | 0.00 | 0.57 | 0.57 | 75 | 1009.8 |
| 20260507131906 | 65 | 42 | 8.7 | 13.9 | 0.00 | 0.57 | 0.57 | 76 | 1009.8 |
| 20260507131707 | 65 | 64 | 8.7 | 13.9 | 0.00 | 0.57 | 0.57 | 75 | 1009.8 |
| 20260507131607 | 65 | 347 | 8.7 | 13.9 | 0.00 | 0.57 | 0.57 | 75 | 1009.8 |
| 20260507131508 | 65 | 62 | 9.6 | 13.9 | 0.00 | 0.57 | 0.57 | 75 | 1009.8 |
| 20260507131407 | 66 | 74 | 9.6 | 14.8 | 0.00 | 0.57 | 0.57 | 75 | 1009.9 |
| 20260507131309 | 66 | 59 | 9.6 | 14.8 | 0.00 | 0.57 | 0.57 | 75 | 1009.9 |
| 20260507131208 | 66 | 64 | 9.6 | 14.8 | 0.00 | 0.57 | 0.57 | 75 | 1009.9 |
| 20260507131010 | 66 | 81 | 8.7 | 14.8 | 0.00 | 0.57 | 0.57 | 76 | 1009.9 |
| 20260507130908 | 66 | 57 | 8.7 | 14.8 | 0.00 | 0.57 | 0.57 | 76 | 1009.9 |
| 20260507130708 | 66 | 78 | 8.7 | 14.8 | 0.00 | 0.57 | 0.57 | 76 | 1010.0 |
| 20260507130606 | 66 | 53 | 8.7 | 14.8 | 0.00 | 0.57 | 0.57 | 76 | 1010.0 |
| 20260507130509 | 66 | 44 | 8.7 | 14.8 | 0.00 | 0.57 | 0.57 | 76 | 1010.0 |
| 20260507130407 | 66 | 52 | 8.7 | 14.8 | 0.00 | 0.57 | 0.57 | 76 | 1010.0 |
| 20260507130307 | 66 | 62 | 8.7 | 13.9 | 0.00 | 0.57 | 0.57 | 77 | 1010.0 |
| 20260507130206 | 66 | 66 | 8.7 | 13.9 | 0.00 | 0.57 | 0.57 | 78 | 1010.0 |
| 20260507130108 | 66 | 72 | 8.7 | 13.9 | 0.00 | 0.57 | 0.57 | 78 | 1010.0 |
| 20260507130010 | 65 | 65 | 8.7 | 13.9 | 0.00 | 0.57 | 0.57 | 78 | 1010.0 |
| 20260507125805 | 65 | 59 | 9.6 | 13.9 | 0.00 | 0.57 | 0.57 | 78 | 1010.1 |
| 20260507125708 | 65 | 353 | 9.6 | 13.9 | 0.00 | 0.57 | 0.57 | 79 | 1010.1 |
| 20260507125509 | 65 | 50 | 10.4 | 13.9 | 0.00 | 0.57 | 0.57 | 79 | 1010.2 |
| 20260507125407 | 65 | 50 | 10.4 | 13.9 | 0.00 | 0.57 | 0.57 | 79 | 1010.1 |
| 20260507125207 | 65 | 75 | 9.6 | 13.9 | 0.00 | 0.57 | 0.57 | 79 | 1010.0 |
| 20260507125106 | 65 | 56 | 9.6 | 13.9 | 0.00 | 0.57 | 0.57 | 79 | 1010.1 |
| 20260507125007 | 65 | 74 | 9.6 | 13.9 | 0.00 | 0.57 | 0.57 | 79 | 1010.1 |
| 20260507124706 | 66 | 47 | 8.7 | 13.9 | 0.00 | 0.57 | 0.57 | 78 | 1010.1 |
| 20260507124608 | 66 | 58 | 7.8 | 13.9 | 0.00 | 0.57 | 0.57 | 78 | 1010.1 |
| 20260507124510 | 66 | 62 | 7.0 | 13.9 | 0.00 | 0.57 | 0.57 | 78 | 1010.1 |
| 20260507124407 | 66 | 66 | 7.0 | 13.9 | 0.00 | 0.57 | 0.57 | 77 | 1010.2 |
| 20260507124306 | 66 | 37 | 6.1 | 11.3 | 0.00 | 0.57 | 0.57 | 76 | 1010.1 |
| 20260507124207 | 66 | 55 | 6.1 | 11.3 | 0.00 | 0.57 | 0.57 | 76 | 1010.2 |
| 20260507124105 | 66 | 64 | 6.1 | 11.3 | 0.00 | 0.57 | 0.57 | 76 | 1010.2 |
| 20260507124008 | 66 | 62 | 6.1 | 11.3 | 0.00 | 0.57 | 0.57 | 76 | 1010.3 |
| 20260507123906 | 66 | 85 | 6.1 | 10.4 | 0.00 | 0.57 | 0.57 | 76 | 1010.3 |
| 20260507123808 | 66 | 81 | 6.1 | 10.4 | 0.00 | 0.57 | 0.57 | 76 | 1010.3 |
| 20260507123607 | 66 | 62 | 6.1 | 10.4 | 0.00 | 0.57 | 0.57 | 77 | 1010.3 |
| 20260507123406 | 66 | 75 | 6.1 | 10.4 | 0.00 | 0.57 | 0.57 | 76 | 1010.3 |
| 20260507123308 | 66 | 54 | 6.1 | 10.4 | 0.00 | 0.57 | 0.57 | 76 | 1010.4 |
| 20260507123107 | 66 | 76 | 6.1 | 10.4 | 0.00 | 0.57 | 0.57 | 76 | 1010.3 |
| 20260507123007 | 66 | 60 | 6.1 | 9.6 | 0.00 | 0.57 | 0.57 | 76 | 1010.3 |
| 20260507122906 | 66 | 49 | 7.0 | 9.6 | 0.00 | 0.57 | 0.57 | 76 | 1010.3 |
| 20260507122806 | 66 | 44 | 7.0 | 9.6 | 0.00 | 0.57 | 0.57 | 76 | 1010.3 |
| 20260507122606 | 66 | 60 | 7.0 | 9.6 | 0.00 | 0.57 | 0.57 | 76 | 1010.3 |
| 20260507122507 | 66 | 50 | 7.0 | 10.4 | 0.00 | 0.57 | 0.57 | 77 | 1010.3 |
| 20260507122407 | 66 | 65 | 7.0 | 10.4 | 0.00 | 0.57 | 0.57 | 77 | 1010.3 |
| 20260507122308 | 66 | 53 | 7.0 | 10.4 | 0.00 | 0.57 | 0.57 | 77 | 1010.3 |
| 20260507122205 | 66 | 52 | 7.0 | 10.4 | 0.00 | 0.57 | 0.57 | 77 | 1010.3 |
| 20260507122105 | 66 | 62 | 7.0 | 10.4 | 0.00 | 0.57 | 0.57 | 77 | 1010.3 |
| 20260507122009 | 66 | 79 | 7.8 | 10.4 | 0.00 | 0.57 | 0.57 | 77 | 1010.3 |
| 20260507121906 | 66 | 55 | 7.0 | 10.4 | 0.00 | 0.57 | 0.57 | 76 | 1010.3 |
| 20260507121806 | 66 | 62 | 7.0 | 10.4 | 0.00 | 0.57 | 0.57 | 77 | 1010.3 |
| 20260507121606 | 66 | 38 | 7.0 | 10.4 | 0.00 | 0.57 | 0.57 | 77 | 1010.4 |
| 20260507121406 | 66 | 52 | 7.0 | 10.4 | 0.00 | 0.57 | 0.57 | 77 | 1010.4 |
| 20260507121307 | 66 | 59 | 7.0 | 10.4 | 0.00 | 0.57 | 0.57 | 77 | 1010.4 |
| 20260507121207 | 66 | 67 | 7.0 | 10.4 | 0.00 | 0.57 | 0.57 | 77 | 1010.4 |
| 20260507121017 | 66 | 62 | 7.0 | 11.3 | 0.00 | 0.57 | 0.57 | 77 | 1010.3 |
| 20260507120907 | 66 | 69 | 7.0 | 11.3 | 0.00 | 0.57 | 0.57 | 77 | 1010.4 |
| 20260507120807 | 66 | 58 | 7.0 | 11.3 | 0.00 | 0.57 | 0.57 | 77 | 1010.4 |
| 20260507120606 | 66 | 56 | 7.0 | 11.3 | 0.00 | 0.57 | 0.57 | 77 | 1010.4 |
| 20260507120509 | 66 | 75 | 7.0 | 11.3 | 0.00 | 0.57 | 0.57 | 77 | 1010.3 |
| 20260507120405 | 66 | 38 | 7.0 | 11.3 | 0.00 | 0.57 | 0.57 | 77 | 1010.3 |
| 20260507120308 | 66 | 43 | 7.0 | 11.3 | 0.00 | 0.57 | 0.57 | 77 | 1010.4 |
| 20260507120207 | 66 | 33 | 7.8 | 11.3 | 0.00 | 0.57 | 0.57 | 77 | 1010.4 |
| 20260507120107 | 66 | 35 | 7.0 | 11.3 | 0.00 | 0.57 | 0.57 | 77 | 1010.4 |
| 20260507120012 | 66 | 65 | 7.0 | 11.3 | 0.00 | 0.57 | 0.57 | 78 | 1010.4 |
| 20260507115907 | 66 | 53 | 7.8 | 11.3 | 0.00 | 0.57 | 0.57 | 78 | 1010.4 |
| 20260507115807 | 65 | 58 | 7.8 | 11.3 | 0.00 | 0.57 | 0.57 | 78 | 1010.5 |
| 20260507115707 | 65 | 70 | 7.8 | 11.3 | 0.00 | 0.57 | 0.57 | 78 | 1010.4 |
| 20260507115408 | 65 | 62 | 7.8 | 11.3 | 0.00 | 0.57 | 0.57 | 78 | 1010.4 |
| 20260507115307 | 65 | 40 | 8.7 | 11.3 | 0.00 | 0.57 | 0.57 | 79 | 1010.5 |
| 20260507115209 | 65 | 66 | 8.7 | 11.3 | 0.00 | 0.57 | 0.57 | 78 | 1010.5 |
| 20260507115106 | 65 | 32 | 7.8 | 11.3 | 0.00 | 0.57 | 0.57 | 78 | 1010.5 |
| 20260507115008 | 65 | 48 | 8.7 | 11.3 | 0.00 | 0.57 | 0.57 | 78 | 1010.5 |
| 20260507114807 | 65 | 58 | 8.7 | 12.2 | 0.00 | 0.57 | 0.57 | 78 | 1010.6 |
| 20260507114706 | 65 | 64 | 8.7 | 12.2 | 0.00 | 0.57 | 0.57 | 79 | 1010.5 |
| 20260507114605 | 65 | 62 | 8.7 | 12.2 | 0.00 | 0.57 | 0.57 | 79 | 1010.5 |
| 20260507114508 | 65 | 59 | 7.8 | 12.2 | 0.00 | 0.57 | 0.57 | 79 | 1010.7 |
| 20260507114307 | 65 | 47 | 8.7 | 12.2 | 0.00 | 0.57 | 0.57 | 79 | 1010.7 |
| 20260507114105 | 65 | 57 | 7.8 | 12.2 | 0.00 | 0.57 | 0.57 | 79 | 1010.7 |
| 20260507114008 | 65 | 52 | 7.8 | 12.2 | 0.00 | 0.57 | 0.57 | 79 | 1010.8 |
| 20260507113908 | 65 | 61 | 7.8 | 12.2 | 0.00 | 0.57 | 0.57 | 79 | 1010.7 |
| 20260507113806 | 65 | 57 | 7.8 | 12.2 | 0.00 | 0.57 | 0.57 | 79 | 1010.6 |
| 20260507113707 | 65 | 56 | 7.0 | 12.2 | 0.00 | 0.57 | 0.57 | 79 | 1010.7 |
| 20260507113608 | 65 | 55 | 7.0 | 12.2 | 0.00 | 0.57 | 0.57 | 80 | 1010.7 |
| 20260507113406 | 65 | 60 | 7.0 | 12.2 | 0.00 | 0.57 | 0.57 | 80 | 1010.7 |
| 20260507113306 | 65 | 42 | 7.0 | 12.2 | 0.00 | 0.57 | 0.57 | 80 | 1010.8 |
| 20260507113205 | 65 | 59 | 7.0 | 12.2 | 0.00 | 0.57 | 0.57 | 80 | 1010.8 |
| 20260507113108 | 65 | 28 | 7.0 | 12.2 | 0.00 | 0.57 | 0.57 | 80 | 1010.7 |
| 20260507112907 | 65 | 50 | 7.0 | 13.0 | 0.01 | 0.57 | 0.57 | 81 | 1010.8 |
| 20260507112809 | 65 | 111 | 7.0 | 13.0 | 0.01 | 0.57 | 0.57 | 81 | 1010.9 |
| 20260507112707 | 65 | 68 | 7.0 | 13.0 | 0.02 | 0.57 | 0.57 | 81 | 1010.9 |
| 20260507112606 | 65 | 51 | 7.0 | 13.0 | 0.02 | 0.57 | 0.57 | 81 | 1010.8 |
| 20260507112508 | 65 | 52 | 7.0 | 13.0 | 0.03 | 0.57 | 0.57 | 81 | 1010.9 |
| 20260507112407 | 65 | 70 | 7.0 | 13.0 | 0.05 | 0.57 | 0.57 | 81 | 1011.0 |
| 20260507112307 | 65 | 68 | 7.0 | 13.0 | 0.07 | 0.57 | 0.57 | 82 | 1011.0 |
| 20260507112205 | 65 | 85 | 7.8 | 13.0 | 0.10 | 0.57 | 0.57 | 82 | 1011.0 |
| 20260507112009 | 65 | 44 | 7.8 | 12.2 | 0.20 | 0.57 | 0.57 | 82 | 1011.2 |
| 20260507111907 | 65 | 43 | 7.8 | 12.2 | 0.22 | 0.57 | 0.57 | 82 | 1011.2 |
| 20260507111805 | 65 | 48 | 7.8 | 12.2 | 0.30 | 0.57 | 0.57 | 82 | 1011.2 |
| 20260507111707 | 64 | 83 | 7.8 | 12.2 | 0.39 | 0.57 | 0.57 | 82 | 1011.2 |
| 20260507111607 | 64 | 68 | 7.8 | 12.2 | 0.39 | 0.57 | 0.57 | 82 | 1011.2 |
| 20260507111509 | 64 | 35 | 7.8 | 12.2 | 0.43 | 0.57 | 0.57 | 82 | 1011.2 |
| 20260507111407 | 64 | 87 | 7.8 | 12.2 | 0.45 | 0.57 | 0.57 | 83 | 1011.1 |
| 20260507111206 | 64 | 66 | 7.8 | 12.2 | 0.49 | 0.57 | 0.57 | 83 | 1011.2 |
| 20260507111009 | 64 | 83 | 7.8 | 11.3 | 0.52 | 0.57 | 0.57 | 83 | 1011.3 |
| 20260507110907 | 64 | 27 | 7.8 | 11.3 | 0.54 | 0.57 | 0.57 | 83 | 1011.3 |
| 20260507110807 | 64 | 62 | 7.8 | 11.3 | 0.54 | 0.57 | 0.57 | 83 | 1011.3 |
| 20260507110708 | 64 | 61 | 7.8 | 11.3 | 0.55 | 0.57 | 0.57 | 83 | 1011.2 |
| 20260507110608 | 64 | 51 | 7.8 | 11.3 | 0.55 | 0.57 | 0.57 | 83 | 1011.2 |
| 20260507110306 | 64 | 46 | 7.8 | 11.3 | 0.57 | 0.57 | 0.57 | 83 | 1011.3 |
| 20260507110107 | 64 | 64 | 7.8 | 11.3 | 0.57 | 0.57 | 0.57 | 84 | 1011.3 |
| 20260507110011 | 64 | 58 | 7.8 | 11.3 | 0.57 | 0.57 | 0.57 | 84 | 1011.2 |
| 20260507105907 | 64 | 68 | 7.8 | 11.3 | 0.57 | 0.57 | 0.57 | 84 | 1011.3 |
| 20260507105806 | 64 | 50 | 7.8 | 11.3 | 0.57 | 0.57 | 0.57 | 84 | 1011.3 |
| 20260507105706 | 64 | 68 | 7.8 | 11.3 | 0.57 | 0.57 | 0.57 | 84 | 1011.3 |
| 20260507105610 | 64 | 65 | 7.8 | 11.3 | 0.57 | 0.57 | 0.57 | 84 | 1011.2 |
| 20260507105508 | 64 | 60 | 7.0 | 10.4 | 0.57 | 0.57 | 0.57 | 84 | 1011.3 |
| 20260507105406 | 64 | 62 | 7.0 | 10.4 | 0.57 | 0.57 | 0.57 | 84 | 1011.3 |
| 20260507105307 | 64 | 75 | 6.1 | 10.4 | 0.57 | 0.57 | 0.57 | 84 | 1011.2 |
| 20260507105205 | 64 | 58 | 6.1 | 10.4 | 0.57 | 0.57 | 0.57 | 85 | 1011.2 |
| 20260507105105 | 64 | 44 | 5.2 | 10.4 | 0.57 | 0.57 | 0.57 | 85 | 1011.2 |
| 20260507104808 | 64 | 62 | 3.5 | 10.4 | 0.57 | 0.57 | 0.57 | 85 | 1011.1 |
| 20260507104707 | 64 | 63 | 2.6 | 10.4 | 0.57 | 0.57 | 0.57 | 86 | 1011.1 |
| 20260507104607 | 64 | 66 | 2.6 | 9.6 | 0.57 | 0.57 | 0.57 | 86 | 1011.1 |
| 20260507104507 | 64 | 39 | 2.6 | 9.6 | 0.57 | 0.57 | 0.57 | 86 | 1011.1 |
| 20260507104407 | 64 | 54 | 1.7 | 9.6 | 0.57 | 0.57 | 0.57 | 86 | 1011.2 |
| 20260507104307 | 64 | 14 | 1.7 | 6.1 | 0.57 | 0.57 | 0.57 | 87 | 1011.1 |
| 20260507104207 | 64 | 14 | 1.7 | 6.1 | 0.57 | 0.57 | 0.57 | 87 | 1011.1 |
| 20260507104106 | 63 | 21 | 1.7 | 5.2 | 0.57 | 0.57 | 0.57 | 87 | 1011.1 |
| 20260507104012 | 63 | 78 | 1.7 | 5.2 | 0.57 | 0.57 | 0.57 | 87 | 1011.1 |
| 20260507103908 | 63 | 32 | 1.7 | 7.0 | 0.57 | 0.57 | 0.57 | 87 | 1011.1 |
| 20260507103806 | 63 | 7 | 1.7 | 7.0 | 0.57 | 0.57 | 0.57 | 87 | 1011.2 |
| 20260507103706 | 63 | 335 | 1.7 | 7.0 | 0.57 | 0.57 | 0.57 | 87 | 1011.2 |
| 20260507103508 | 63 | 70 | 1.7 | 7.0 | 0.57 | 0.57 | 0.57 | 86 | 1011.2 |
| 20260507103406 | 63 | 60 | 1.7 | 7.0 | 0.57 | 0.57 | 0.57 | 86 | 1011.1 |
| 20260507103205 | 63 | 56 | 2.6 | 7.0 | 0.57 | 0.57 | 0.57 | 86 | 1011.1 |
| 20260507103107 | 62 | 50 | 1.7 | 7.0 | 0.57 | 0.57 | 0.57 | 86 | 1011.1 |
| 20260507103009 | 62 | 53 | 1.7 | 5.2 | 0.57 | 0.57 | 0.57 | 85 | 1011.1 |
| 20260507102907 | 62 | 10 | 1.7 | 5.2 | 0.57 | 0.57 | 0.57 | 85 | 1011.0 |
| 20260507102807 | 62 | 47 | 2.6 | 5.2 | 0.57 | 0.57 | 0.57 | 85 | 1011.1 |
| 20260507102507 | 62 | 287 | 2.6 | 7.0 | 0.54 | 0.54 | 0.54 | 84 | 1011.1 |
| 20260507102406 | 63 | 345 | 2.6 | 7.0 | 0.53 | 0.53 | 0.53 | 84 | 1011.2 |
| 20260507102205 | 63 | 312 | 3.5 | 7.0 | 0.47 | 0.47 | 0.47 | 84 | 1011.2 |
| 20260507102105 | 63 | 290 | 3.5 | 7.0 | 0.43 | 0.43 | 0.43 | 84 | 1011.2 |
| 20260507101707 | 63 | 53 | 5.2 | 10.4 | 0.18 | 0.18 | 0.18 | 83 | 1011.3 |
| 20260507101607 | 64 | 71 | 5.2 | 10.4 | 0.16 | 0.16 | 0.16 | 83 | 1011.3 |
| 20260507101507 | 64 | 58 | 6.1 | 10.4 | 0.14 | 0.14 | 0.14 | 83 | 1011.2 |
| 20260507101406 | 64 | 78 | 6.1 | 10.4 | 0.13 | 0.13 | 0.13 | 83 | 1011.2 |
| 20260507101207 | 64 | 123 | 6.1 | 10.4 | 0.09 | 0.09 | 0.09 | 82 | 1011.2 |
| 20260507101107 | 64 | 73 | 6.1 | 10.4 | 0.08 | 0.08 | 0.08 | 82 | 1011.2 |
| 20260507101010 | 64 | 9 | 5.2 | 10.4 | 0.06 | 0.06 | 0.06 | 81 | 1011.3 |
| 20260507100907 | 64 | 54 | 5.2 | 10.4 | 0.04 | 0.04 | 0.04 | 81 | 1011.2 |
| 20260507100708 | 65 | 64 | 3.5 | 10.4 | 0.02 | 0.02 | 0.02 | 80 | 1011.1 |
| 20260507100606 | 65 | 54 | 3.5 | 10.4 | 0.02 | 0.02 | 0.02 | 79 | 1011.2 |
| 20260507100509 | 65 | 70 | 3.5 | 9.6 | 0.01 | 0.01 | 0.01 | 79 | 1011.2 |
| 20260507100305 | 65 | 41 | 2.6 | 7.8 | 0.00 | 0.00 | 0.00 | 78 | 1011.2 |
| 20260507100207 | 66 | 330 | 3.5 | 7.0 | 0.00 | 0.00 | 0.00 | 78 | 1011.2 |
| 20260507100107 | 66 | 141 | 3.5 | 7.8 | 0.00 | 0.00 | 0.00 | 78 | 1011.2 |
| 20260507100009 | 66 | 48 | 3.5 | 7.8 | 0.00 | 0.00 | 0.00 | 78 | 1011.3 |
| 20260507095906 | 65 | 344 | 3.5 | 7.8 | 0.00 | 0.00 | 0.00 | 78 | 1011.3 |
| 20260507095713 | 65 | 62 | 3.5 | 7.8 | 0.00 | 0.00 | 0.00 | 77 | 1011.2 |
| 20260507095605 | 66 | 44 | 3.5 | 7.8 | 0.00 | 0.00 | 0.00 | 77 | 1011.4 |
| 20260507095508 | 66 | 82 | 3.5 | 7.8 | 0.00 | 0.00 | 0.00 | 76 | 1011.3 |
| 20260507095406 | 66 | 55 | 2.6 | 7.8 | 0.00 | 0.00 | 0.00 | 76 | 1011.4 |
| 20260507095207 | 66 | 61 | 2.6 | 6.1 | 0.00 | 0.00 | 0.00 | 76 | 1011.4 |
| 20260507095107 | 66 | 80 | 2.6 | 6.1 | 0.00 | 0.00 | 0.00 | 76 | 1011.4 |
| 20260507094906 | 66 | 48 | 3.5 | 6.1 | 0.00 | 0.00 | 0.00 | 76 | 1011.4 |
| 20260507094808 | 66 | 91 | 3.5 | 6.1 | 0.00 | 0.00 | 0.00 | 76 | 1011.3 |
| 20260507094705 | 66 | 87 | 3.5 | 6.1 | 0.00 | 0.00 | 0.00 | 76 | 1011.4 |
| 20260507094509 | 66 | 36 | 3.5 | 7.0 | 0.00 | 0.00 | 0.00 | 76 | 1011.3 |
| 20260507094405 | 66 | 50 | 4.3 | 7.0 | 0.00 | 0.00 | 0.00 | 76 | 1011.4 |
| 20260507094306 | 66 | 71 | 4.3 | 7.0 | 0.00 | 0.00 | 0.00 | 76 | 1011.4 |
| 20260507094206 | 66 | 63 | 4.3 | 7.0 | 0.00 | 0.00 | 0.00 | 76 | 1011.4 |
| 20260507094106 | 66 | 83 | 4.3 | 7.0 | 0.00 | 0.00 | 0.00 | 75 | 1011.4 |
| 20260507094010 | 66 | 77 | 4.3 | 7.0 | 0.00 | 0.00 | 0.00 | 75 | 1011.4 |
| 20260507093906 | 66 | 77 | 3.5 | 7.0 | 0.00 | 0.00 | 0.00 | 75 | 1011.4 |
| 20260507093806 | 66 | 54 | 3.5 | 7.0 | 0.00 | 0.00 | 0.00 | 74 | 1011.4 |
| 20260507093705 | 66 | 60 | 3.5 | 7.0 | 0.00 | 0.00 | 0.00 | 74 | 1011.4 |
| 20260507093606 | 66 | 54 | 2.6 | 7.0 | 0.00 | 0.00 | 0.00 | 74 | 1011.3 |
| 20260507093509 | 66 | 53 | 2.6 | 7.0 | 0.00 | 0.00 | 0.00 | 74 | 1011.4 |
| 20260507093407 | 66 | 60 | 2.6 | 6.1 | 0.00 | 0.00 | 0.00 | 73 | 1011.3 |
| 20260507093208 | 66 | 46 | 2.6 | 6.1 | 0.00 | 0.00 | 0.00 | 73 | 1011.3 |
| 20260507093107 | 66 | 70 | 1.7 | 6.1 | 0.00 | 0.00 | 0.00 | 73 | 1011.4 |
| 20260507092909 | 66 | 29 | 1.7 | 7.0 | 0.00 | 0.00 | 0.00 | 73 | 1011.4 |
| 20260507092808 | 66 | 76 | 1.7 | 7.0 | 0.00 | 0.00 | 0.00 | 73 | 1011.3 |
| 20260507092607 | 66 | 94 | 1.7 | 7.0 | 0.00 | 0.00 | 0.00 | 73 | 1011.4 |
| 20260507092507 | 66 | 94 | 1.7 | 7.0 | 0.00 | 0.00 | 0.00 | 73 | 1011.4 |
| 20260507092407 | 66 | 212 | 1.7 | 7.0 | 0.00 | 0.00 | 0.00 | 73 | 1011.4 |
| 20260507092310 | 66 | 79 | 1.7 | 7.0 | 0.00 | 0.00 | 0.00 | 72 | 1011.4 |
| 20260507092212 | 66 | 67 | 0.9 | 7.0 | 0.00 | 0.00 | 0.00 | 72 | 1011.4 |
| 20260507092106 | 66 | 51 | 0.9 | 6.1 | 0.00 | 0.00 | 0.00 | 73 | 1011.5 |
| 20260507091907 | 66 | 28 | 0.9 | 3.5 | 0.00 | 0.00 | 0.00 | 73 | 1011.4 |
| 20260507091807 | 66 | 17 | 0.9 | 3.5 | 0.00 | 0.00 | 0.00 | 73 | 1011.4 |
| 20260507091607 | 66 | 17 | 0.9 | 3.5 | 0.00 | 0.00 | 0.00 | 73 | 1011.5 |
| 20260507091508 | 66 | 22 | 1.7 | 4.3 | 0.00 | 0.00 | 0.00 | 73 | 1011.5 |
| 20260507091406 | 66 | 92 | 0.9 | 4.3 | 0.00 | 0.00 | 0.00 | 73 | 1011.5 |
| 20260507091306 | 66 | 36 | 1.7 | 4.3 | 0.00 | 0.00 | 0.00 | 73 | 1011.4 |
| 20260507091206 | 65 | 40 | 1.7 | 4.3 | 0.00 | 0.00 | 0.00 | 73 | 1011.4 |
| 20260507090907 | 65 | 40 | 1.7 | 5.2 | 0.00 | 0.00 | 0.00 | 73 | 1011.3 |
| 20260507090807 | 65 | 46 | 1.7 | 5.2 | 0.00 | 0.00 | 0.00 | 73 | 1011.4 |
| 20260507090707 | 65 | 31 | 1.7 | 5.2 | 0.00 | 0.00 | 0.00 | 73 | 1011.4 |
| 20260507090508 | 65 | 335 | 1.7 | 5.2 | 0.00 | 0.00 | 0.00 | 73 | 1011.4 |
| 20260507090406 | 65 | 303 | 2.6 | 5.2 | 0.00 | 0.00 | 0.00 | 73 | 1011.3 |
| 20260507090206 | 65 | 60 | 1.7 | 7.0 | 0.00 | 0.00 | 0.00 | 73 | 1011.2 |
| 20260507090108 | 65 | 48 | 1.7 | 7.0 | 0.00 | 0.00 | 0.00 | 73 | 1011.3 |
| 20260507085906 | 65 | 347 | 2.6 | 7.0 | 0.00 | 0.00 | 0.00 | 73 | 1011.2 |
| 20260507085707 | 65 | 276 | 2.6 | 7.0 | 0.00 | 0.00 | 0.00 | 73 | 1011.3 |
| 20260507085609 | 65 | 295 | 2.6 | 8.7 | 0.00 | 0.00 | 0.00 | 73 | 1011.4 |
| 20260507085509 | 65 | 330 | 2.6 | 8.7 | 0.00 | 0.00 | 0.00 | 73 | 1011.3 |
| 20260507085406 | 64 | 16 | 2.6 | 8.7 | 0.00 | 0.00 | 0.00 | 73 | 1011.3 |
| 20260507085307 | 64 | 65 | 2.6 | 8.7 | 0.00 | 0.00 | 0.00 | 73 | 1011.3 |
| 20260507085211 | 64 | 53 | 2.6 | 8.7 | 0.00 | 0.00 | 0.00 | 73 | 1011.3 |
| 20260507085105 | 64 | 4 | 2.6 | 8.7 | 0.00 | 0.00 | 0.00 | 73 | 1011.2 |
| 20260507085009 | 64 | 341 | 2.6 | 8.7 | 0.00 | 0.00 | 0.00 | 72 | 1011.2 |
| 20260507084905 | 64 | 249 | 1.7 | 8.7 | 0.00 | 0.00 | 0.00 | 72 | 1011.3 |
| 20260507084806 | 64 | 288 | 1.7 | 8.7 | 0.00 | 0.00 | 0.00 | 72 | 1011.4 |
| 20260507084707 | 64 | 302 | 1.7 | 5.2 | 0.00 | 0.00 | 0.00 | 72 | 1011.4 |
| 20260507084605 | 64 | 317 | 2.6 | 5.2 | 0.00 | 0.00 | 0.00 | 72 | 1011.3 |
| 20260507084508 | 64 | 41 | 2.6 | 5.2 | 0.00 | 0.00 | 0.00 | 72 | 1011.3 |
| 20260507084407 | 64 | 266 | 2.6 | 7.0 | 0.00 | 0.00 | 0.00 | 72 | 1011.4 |
| 20260507084106 | 63 | 291 | 2.6 | 7.8 | 0.00 | 0.00 | 0.00 | 72 | 1011.3 |
| 20260507084009 | 63 | 348 | 3.5 | 7.8 | 0.00 | 0.00 | 0.00 | 72 | 1011.2 |
| 20260507083908 | 63 | 295 | 3.5 | 7.8 | 0.00 | 0.00 | 0.00 | 72 | 1011.2 |
| 20260507083808 | 63 | 296 | 3.5 | 8.7 | 0.00 | 0.00 | 0.00 | 72 | 1011.2 |
| 20260507083707 | 63 | 285 | 3.5 | 8.7 | 0.00 | 0.00 | 0.00 | 72 | 1011.2 |
| 20260507083608 | 63 | 278 | 3.5 | 8.7 | 0.00 | 0.00 | 0.00 | 72 | 1011.2 |
| 20260507083508 | 63 | 297 | 3.5 | 8.7 | 0.00 | 0.00 | 0.00 | 72 | 1011.2 |
| 20260507083407 | 63 | 261 | 3.5 | 8.7 | 0.00 | 0.00 | 0.00 | 72 | 1011.2 |
| 20260507083305 | 63 | 335 | 3.5 | 8.7 | 0.00 | 0.00 | 0.00 | 72 | 1011.2 |
| 20260507083206 | 63 | 247 | 3.5 | 8.7 | 0.00 | 0.00 | 0.00 | 72 | 1011.2 |
| 20260507083106 | 63 | 325 | 3.5 | 8.7 | 0.00 | 0.00 | 0.00 | 72 | 1011.2 |
| 20260507083007 | 63 | 220 | 3.5 | 8.7 | 0.00 | 0.00 | 0.00 | 72 | 1011.3 |
| 20260507082905 | 63 | 317 | 2.6 | 7.8 | 0.00 | 0.00 | 0.00 | 71 | 1011.2 |
| 20260507082806 | 63 | 314 | 2.6 | 7.8 | 0.00 | 0.00 | 0.00 | 71 | 1011.2 |
| 20260507082706 | 63 | 321 | 3.5 | 7.8 | 0.00 | 0.00 | 0.00 | 71 | 1011.3 |
| 20260507082606 | 63 | 281 | 3.5 | 8.7 | 0.00 | 0.00 | 0.00 | 71 | 1011.2 |
| 20260507082508 | 63 | 234 | 3.5 | 8.7 | 0.00 | 0.00 | 0.00 | 71 | 1011.2 |
| 20260507082406 | 63 | 316 | 3.5 | 8.7 | 0.00 | 0.00 | 0.00 | 71 | 1011.3 |
| 20260507082306 | 63 | 187 | 3.5 | 8.7 | 0.00 | 0.00 | 0.00 | 71 | 1011.3 |
| 20260507082207 | 63 | 238 | 3.5 | 8.7 | 0.00 | 0.00 | 0.00 | 71 | 1011.3 |
| 20260507082105 | 63 | 316 | 3.5 | 8.7 | 0.00 | 0.00 | 0.00 | 71 | 1011.3 |
| 20260507082007 | 63 | 312 | 3.5 | 8.7 | 0.00 | 0.00 | 0.00 | 71 | 1011.2 |
| 20260507081809 | 63 | 276 | 4.3 | 8.7 | 0.00 | 0.00 | 0.00 | 71 | 1011.2 |
| 20260507081607 | 63 | 293 | 3.5 | 9.6 | 0.00 | 0.00 | 0.00 | 71 | 1011.2 |
| 20260507081507 | 62 | 258 | 3.5 | 9.6 | 0.00 | 0.00 | 0.00 | 71 | 1011.2 |
| 20260507081405 | 62 | 339 | 3.5 | 9.6 | 0.00 | 0.00 | 0.00 | 71 | 1011.2 |
| 20260507081306 | 63 | 357 | 3.5 | 9.6 | 0.00 | 0.00 | 0.00 | 71 | 1011.2 |
| 20260507081206 | 63 | 229 | 3.5 | 9.6 | 0.00 | 0.00 | 0.00 | 71 | 1011.2 |
| 20260507081105 | 62 | 269 | 3.5 | 9.6 | 0.00 | 0.00 | 0.00 | 71 | 1011.2 |
| 20260507081007 | 62 | 256 | 3.5 | 9.6 | 0.00 | 0.00 | 0.00 | 71 | 1011.2 |
| 20260507080907 | 62 | 277 | 3.5 | 9.6 | 0.00 | 0.00 | 0.00 | 71 | 1011.3 |
| 20260507080805 | 62 | 264 | 3.5 | 9.6 | 0.00 | 0.00 | 0.00 | 71 | 1011.2 |
| 20260507080707 | 62 | 358 | 3.5 | 9.6 | 0.00 | 0.00 | 0.00 | 71 | 1011.3 |
| 20260507080605 | 62 | 229 | 4.3 | 9.6 | 0.00 | 0.00 | 0.00 | 71 | 1011.3 |
| 20260507080507 | 62 | 293 | 4.3 | 9.6 | 0.00 | 0.00 | 0.00 | 71 | 1011.2 |
| 20260507080406 | 62 | 267 | 4.3 | 9.6 | 0.00 | 0.00 | 0.00 | 71 | 1011.3 |
| 20260507080308 | 62 | 303 | 4.3 | 9.6 | 0.00 | 0.00 | 0.00 | 71 | 1011.2 |
| 20260507080207 | 62 | 251 | 4.3 | 9.6 | 0.00 | 0.00 | 0.00 | 71 | 1011.2 |
| 20260507080107 | 62 | 320 | 4.3 | 9.6 | 0.00 | 0.00 | 0.00 | 71 | 1011.3 |
| 20260507080014 | 62 | 7 | 3.5 | 9.6 | 0.00 | 0.00 | 0.00 | 71 | 1011.2 |
| 20260507075905 | 62 | 308 | 3.5 | 8.7 | 0.00 | 0.00 | 0.00 | 71 | 1011.1 |
| 20260507075805 | 62 | 335 | 3.5 | 8.7 | 0.00 | 0.00 | 0.00 | 71 | 1011.2 |
| 20260507075705 | 62 | 273 | 2.6 | 7.8 | 0.00 | 0.00 | 0.00 | 71 | 1011.2 |
| 20260507075606 | 62 | 289 | 2.6 | 7.8 | 0.00 | 0.00 | 0.00 | 71 | 1011.2 |
| 20260507075508 | 62 | 293 | 2.6 | 7.8 | 0.00 | 0.00 | 0.00 | 71 | 1011.2 |
| 20260507075407 | 62 | 303 | 2.6 | 7.8 | 0.00 | 0.00 | 0.00 | 71 | 1011.2 |
| 20260507075307 | 62 | 296 | 2.6 | 8.7 | 0.00 | 0.00 | 0.00 | 71 | 1011.2 |
| 20260507075205 | 62 | 229 | 2.6 | 8.7 | 0.00 | 0.00 | 0.00 | 71 | 1011.3 |
| 20260507075106 | 62 | 215 | 2.6 | 8.7 | 0.00 | 0.00 | 0.00 | 71 | 1011.3 |
| 20260507075009 | 62 | 321 | 2.6 | 8.7 | 0.00 | 0.00 | 0.00 | 71 | 1011.3 |
| 20260507074906 | 62 | 310 | 2.6 | 8.7 | 0.00 | 0.00 | 0.00 | 71 | 1011.3 |
| 20260507074707 | 62 | 335 | 2.6 | 8.7 | 0.00 | 0.00 | 0.00 | 71 | 1011.4 |
| 20260507074607 | 62 | 258 | 2.6 | 8.7 | 0.00 | 0.00 | 0.00 | 70 | 1011.4 |
| 20260507074405 | 62 | 330 | 2.6 | 7.8 | 0.00 | 0.00 | 0.00 | 71 | 1011.3 |
| 20260507074306 | 62 | 210 | 2.6 | 5.2 | 0.00 | 0.00 | 0.00 | 71 | 1011.3 |
| 20260507074207 | 62 | 186 | 2.6 | 5.2 | 0.00 | 0.00 | 0.00 | 71 | 1011.3 |
| 20260507074106 | 62 | 320 | 2.6 | 4.3 | 0.00 | 0.00 | 0.00 | 71 | 1011.3 |
| 20260507074009 | 62 | 262 | 2.6 | 5.2 | 0.00 | 0.00 | 0.00 | 71 | 1011.3 |
| 20260507073906 | 62 | 255 | 2.6 | 7.0 | 0.00 | 0.00 | 0.00 | 71 | 1011.3 |
| 20260507073807 | 62 | 297 | 3.5 | 8.7 | 0.00 | 0.00 | 0.00 | 71 | 1011.4 |
| 20260507073706 | 62 | 299 | 2.6 | 8.7 | 0.00 | 0.00 | 0.00 | 71 | 1011.3 |
| 20260507073607 | 62 | 298 | 2.6 | 8.7 | 0.00 | 0.00 | 0.00 | 71 | 1011.3 |
| 20260507073509 | 62 | 238 | 2.6 | 8.7 | 0.00 | 0.00 | 0.00 | 71 | 1011.3 |
| 20260507073407 | 62 | 238 | 2.6 | 8.7 | 0.00 | 0.00 | 0.00 | 71 | 1011.3 |
| 20260507073306 | 62 | 201 | 2.6 | 8.7 | 0.00 | 0.00 | 0.00 | 71 | 1011.3 |
| 20260507073107 | 62 | 330 | 2.6 | 8.7 | 0.00 | 0.00 | 0.00 | 72 | 1011.2 |
| 20260507073007 | 62 | 325 | 2.6 | 8.7 | 0.00 | 0.00 | 0.00 | 72 | 1011.3 |
| 20260507072907 | 62 | 306 | 2.6 | 8.7 | 0.00 | 0.00 | 0.00 | 72 | 1011.3 |
| 20260507072806 | 62 | 264 | 1.7 | 5.2 | 0.00 | 0.00 | 0.00 | 73 | 1011.2 |
| 20260507072706 | 62 | 325 | 1.7 | 5.2 | 0.00 | 0.00 | 0.00 | 73 | 1011.3 |
| 20260507072606 | 62 | 247 | 1.7 | 5.2 | 0.00 | 0.00 | 0.00 | 73 | 1011.2 |
| 20260507072508 | 62 | 318 | 1.7 | 5.2 | 0.00 | 0.00 | 0.00 | 73 | 1011.2 |
| 20260507072405 | 62 | 262 | 1.7 | 5.2 | 0.00 | 0.00 | 0.00 | 73 | 1011.2 |
| 20260507072308 | 61 | 247 | 1.7 | 5.2 | 0.00 | 0.00 | 0.00 | 73 | 1011.2 |
| 20260507072206 | 61 | 228 | 1.7 | 5.2 | 0.00 | 0.00 | 0.00 | 74 | 1011.2 |
| 20260507072107 | 61 | 358 | 1.7 | 5.2 | 0.00 | 0.00 | 0.00 | 74 | 1011.2 |
| 20260507072007 | 61 | 216 | 1.7 | 5.2 | 0.00 | 0.00 | 0.00 | 74 | 1011.2 |
| 20260507071907 | 61 | 348 | 1.7 | 5.2 | 0.00 | 0.00 | 0.00 | 74 | 1011.2 |
| 20260507071808 | 61 | 245 | 1.7 | 5.2 | 0.00 | 0.00 | 0.00 | 74 | 1011.2 |
| 20260507071708 | 61 | 285 | 1.7 | 5.2 | 0.00 | 0.00 | 0.00 | 74 | 1011.2 |
| 20260507071509 | 61 | 302 | 1.7 | 5.2 | 0.00 | 0.00 | 0.00 | 75 | 1011.2 |
| 20260507071405 | 61 | 264 | 1.7 | 4.3 | 0.00 | 0.00 | 0.00 | 75 | 1011.2 |
| 20260507071306 | 61 | 345 | 1.7 | 4.3 | 0.00 | 0.00 | 0.00 | 75 | 1011.2 |
| 20260507071106 | 60 | 320 | 1.7 | 4.3 | 0.00 | 0.00 | 0.00 | 75 | 1011.2 |
| 20260507071008 | 60 | 321 | 1.7 | 4.3 | 0.00 | 0.00 | 0.00 | 75 | 1011.1 |
| 20260507070906 | 60 | 281 | 1.7 | 4.3 | 0.00 | 0.00 | 0.00 | 75 | 1011.1 |
| 20260507070805 | 60 | 210 | 1.7 | 3.5 | 0.00 | 0.00 | 0.00 | 75 | 1011.2 |